GW2826 Weather Reports


time (UTC)temp
C
wind
direction
speed
KPH
gust
KPH
rain 1hr
cm
rain 24hr
cm
rain mn
cm
humidity
%
barometer
mb
20260508122425 13 270 11.3 22.5 0.00 0.00 0.00 72 1005.3
20260508122307 13 266 11.3 22.5 0.00 0.00 0.00 73 1005.4
20260508122204 13 265 11.3 22.5 0.00 0.00 0.00 74 1005.4
20260508122104 13 264 11.3 22.5 0.00 0.00 0.00 74 1005.3
20260508122025 13 265 11.3 22.5 0.00 0.00 0.00 74 1005.3
20260508121904 13 269 11.3 22.5 0.00 0.00 0.00 73 1005.4
20260508121804 13 269 11.3 20.9 0.00 0.00 0.00 73 1005.2
20260508121704 13 266 11.3 20.9 0.00 0.00 0.00 75 1005.4
20260508121604 13 266 11.3 20.9 0.00 0.00 0.00 75 1005.3
20260508121504 13 264 11.3 20.9 0.00 0.00 0.00 75 1005.3
20260508121404 13 263 11.3 20.9 0.00 0.00 0.00 76 1005.4
20260508121325 13 267 11.3 20.9 0.00 0.00 0.00 75 1005.2
20260508121204 13 269 12.9 20.9 0.00 0.00 0.00 77 1005.3
20260508121104 13 270 12.9 22.5 0.00 0.00 0.00 76 1005.3
20260508121004 13 268 12.9 22.5 0.00 0.00 0.00 77 1005.3
20260508120904 13 264 12.9 22.5 0.00 0.00 0.00 78 1005.3
20260508120804 13 263 12.9 22.5 0.00 0.00 0.00 77 1005.3
20260508120725 13 266 12.9 22.5 0.00 0.00 0.00 79 1005.3
20260508120604 13 267 12.9 22.5 0.00 0.00 0.00 80 1005.3
20260508120504 12 268 12.9 22.5 0.00 0.00 0.00 80 1005.2
20260508120425 12 270 12.9 22.5 0.00 0.00 0.00 80 1005.2
20260508120304 12 267 11.3 22.5 0.00 0.00 0.00 80 1005.3
20260508120204 13 265 11.3 22.5 0.00 0.00 0.00 80 1005.3
20260508120104 13 264 11.3 22.5 0.00 0.00 0.00 81 1005.3
20260508120025 13 265 9.7 22.5 0.00 0.00 0.00 82 1005.4
20260508115904 13 269 9.7 20.9 0.00 0.00 0.00 80 1005.4
20260508115804 13 268 9.7 20.9 0.00 0.00 0.00 80 1005.3
20260508115725 13 269 9.7 20.9 0.00 0.00 0.00 81 1005.2
20260508115604 13 266 9.7 20.9 0.00 0.00 0.00 81 1005.2
20260508115504 13 264 9.7 17.7 0.00 0.00 0.00 82 1005.2
20260508115404 13 263 8.0 17.7 0.00 0.00 0.00 82 1005.4
20260508115306 13 266 8.0 17.7 0.00 0.00 0.00 82 1005.3
20260508115204 13 268 8.0 20.9 0.00 0.00 0.00 81 1005.1
20260508115104 13 266 8.0 20.9 0.00 0.00 0.00 81 1005.1
20260508115004 13 268 9.7 20.9 0.00 0.00 0.00 80 1005.2
20260508114904 13 268 9.7 20.9 0.00 0.00 0.00 82 1005.1
20260508114804 13 270 9.7 20.9 0.00 0.00 0.00 82 1005.1
20260508114725 13 267 9.7 20.9 0.00 0.00 0.00 82 1005.2
20260508114604 13 268 11.3 20.9 0.00 0.00 0.00 81 1005.2
20260508114504 13 269 9.7 20.9 0.00 0.00 0.00 81 1005.1
20260508114425 13 271 11.3 20.9 0.00 0.00 0.00 82 1005.3
20260508114304 13 274 11.3 20.9 0.00 0.00 0.00 82 1005.1
20260508114225 13 273 11.3 20.9 0.00 0.00 0.00 83 1005.1
20260508114104 13 272 12.9 20.9 0.00 0.00 0.00 81 1005.3
20260508114004 13 271 12.9 20.9 0.00 0.00 0.00 80 1005.0
20260508113925 13 269 12.9 20.9 0.00 0.00 0.00 81 1005.1
20260508113804 13 268 11.3 20.9 0.00 0.00 0.00 81 1005.3
20260508113704 13 272 11.3 20.9 0.00 0.00 0.00 81 1005.4
20260508113625 13 274 11.3 20.9 0.00 0.00 0.00 81 1005.2
20260508113525 13 274 11.3 20.9 0.00 0.00 0.00 80 1005.1
20260508113404 13 272 11.3 20.9 0.00 0.00 0.00 80 1005.3
20260508113304 13 269 11.3 20.9 0.00 0.00 0.00 81 1005.3
20260508113225 13 270 11.3 20.9 0.00 0.00 0.00 80 1005.2
20260508113104 13 270 11.3 20.9 0.00 0.00 0.00 80 1005.4
20260508113004 13 270 11.3 20.9 0.00 0.00 0.00 82 1005.1
20260508112925 13 270 11.3 20.9 0.00 0.00 0.00 82 1005.1
20260508112804 13 269 11.3 20.9 0.00 0.00 0.00 83 1005.0
20260508112725 12 270 11.3 20.9 0.00 0.00 0.00 83 1005.0
20260508112604 12 270 11.3 20.9 0.00 0.00 0.00 82 1005.1
20260508112525 13 269 11.3 20.9 0.00 0.00 0.00 81 1005.1
20260508112404 13 269 11.3 20.9 0.00 0.00 0.00 80 1005.0
20260508112306 13 271 9.7 20.9 0.00 0.00 0.00 79 1005.2
20260508112204 13 272 9.7 20.9 0.00 0.00 0.00 78 1005.2
20260508112104 13 270 9.7 20.9 0.00 0.00 0.00 80 1005.3
20260508112025 13 268 9.7 20.9 0.00 0.00 0.00 79 1005.0
20260508111904 13 269 9.7 17.7 0.00 0.00 0.00 80 1005.2
20260508111825 13 270 9.7 17.7 0.00 0.00 0.00 78 1005.0
20260508111704 13 263 9.7 17.7 0.00 0.00 0.00 78 1004.9
20260508111604 13 255 9.7 17.7 0.00 0.00 0.00 79 1005.1
20260508111504 13 251 9.7 17.7 0.00 0.00 0.00 77 1005.0
20260508111425 13 248 9.7 17.7 0.00 0.00 0.00 77 1005.0
20260508111304 13 244 11.3 17.7 0.00 0.00 0.00 80 1005.0
20260508111204 13 241 11.3 17.7 0.00 0.00 0.00 79 1005.0
20260508111104 14 241 11.3 22.5 0.00 0.00 0.00 81 1005.2
20260508111004 14 241 11.3 22.5 0.00 0.00 0.00 77 1004.9
20260508110904 14 240 11.3 24.1 0.00 0.00 0.00 69 1005.1
20260508110825 14 236 12.9 24.1 0.00 0.00 0.00 67 1004.9
20260508110704 13 241 11.3 24.1 0.00 0.00 0.00 67 1005.0
20260508110604 13 247 12.9 24.1 0.00 0.00 0.00 67 1005.1
20260508110504 14 248 12.9 24.1 0.00 0.00 0.00 63 1005.2
20260508110404 14 249 12.9 24.1 0.00 0.00 0.00 67 1005.0
20260508110325 13 250 12.9 24.1 0.00 0.00 0.00 67 1005.0
20260508110204 13 248 12.9 24.1 0.00 0.00 0.00 68 1004.9
20260508110125 13 246 14.5 25.7 0.00 0.00 0.00 67 1005.0
20260508110025 13 245 12.9 25.7 0.00 0.00 0.00 66 1004.9
20260508105925 13 240 12.9 25.7 0.00 0.00 0.00 69 1005.0
20260508105804 13 239 12.9 25.7 0.00 0.00 0.00 68 1005.1
20260508105725 13 237 12.9 25.7 0.00 0.00 0.00 69 1005.0
20260508105625 13 227 12.9 25.7 0.00 0.00 0.00 66 1005.0
20260508105504 13 226 12.9 25.7 0.00 0.00 0.00 68 1005.1
20260508105404 13 226 12.9 25.7 0.00 0.00 0.00 67 1004.9
20260508105306 13 223 11.3 25.7 0.00 0.00 0.00 67 1005.1
20260508105204 13 222 11.3 25.7 0.00 0.00 0.00 67 1005.0
20260508105104 13 222 11.3 25.7 0.00 0.00 0.00 67 1005.0
20260508105025 13 223 11.3 25.7 0.00 0.00 0.00 66 1005.0
20260508104904 13 226 11.3 24.1 0.00 0.00 0.00 68 1004.8
20260508104804 14 225 11.3 17.7 0.00 0.00 0.00 68 1005.1
20260508104725 14 225 11.3 17.7 0.00 0.00 0.00 67 1004.9
20260508104604 13 231 11.3 17.7 0.00 0.00 0.00 68 1004.8
20260508104504 13 229 9.7 17.7 0.00 0.00 0.00 67 1005.0
20260508104404 14 228 9.7 17.7 0.00 0.00 0.00 67 1004.9
20260508104304 14 232 9.7 17.7 0.00 0.00 0.00 65 1004.7
20260508104204 13 234 11.3 17.7 0.00 0.00 0.00 69 1004.9
20260508104104 13 233 11.3 20.9 0.00 0.00 0.00 71 1004.7
20260508104004 13 234 11.3 20.9 0.00 0.00 0.00 71 1004.7
20260508103904 13 238 11.3 20.9 0.00 0.00 0.00 67 1004.9
20260508103804 13 237 11.3 20.9 0.00 0.00 0.00 68 1004.9
20260508103725 13 238 11.3 20.9 0.00 0.00 0.00 66 1005.1
20260508103604 13 239 11.3 20.9 0.00 0.00 0.00 69 1004.7
20260508103504 13 243 11.3 20.9 0.00 0.00 0.00 66 1005.0
20260508103404 13 240 12.9 20.9 0.00 0.00 0.00 68 1005.0
20260508103304 13 243 11.3 20.9 0.00 0.00 0.00 66 1004.9
20260508103204 13 244 12.9 20.9 0.00 0.00 0.00 69 1005.0
20260508103104 13 246 12.9 20.9 0.00 0.00 0.00 66 1005.0
20260508103004 13 244 12.9 20.9 0.00 0.00 0.00 65 1004.7
20260508102904 13 243 12.9 20.9 0.00 0.00 0.00 66 1004.7
20260508102804 13 245 12.9 20.9 0.00 0.00 0.00 70 1004.8
20260508102704 13 246 12.9 20.9 0.00 0.00 0.00 71 1004.8
20260508102604 13 247 12.9 20.9 0.00 0.00 0.00 70 1004.8
20260508102503 13 244 11.3 20.9 0.00 0.00 0.00 71 1004.9
20260508102404 13 245 11.3 20.9 0.00 0.00 0.00 71 1004.9
20260508102306 13 243 11.3 20.9 0.00 0.00 0.00 72 1004.8
20260508102204 13 241 11.3 20.9 0.00 0.00 0.00 70 1004.9
20260508102125 13 242 11.3 20.9 0.00 0.00 0.00 74 1004.8
20260508102025 13 242 11.3 20.9 0.00 0.00 0.00 69 1004.8
20260508101904 13 245 11.3 20.9 0.00 0.00 0.00 70 1004.5
20260508101804 13 247 11.3 20.9 0.00 0.00 0.00 73 1004.9
20260508101704 13 248 11.3 20.9 0.00 0.00 0.00 77 1004.9
20260508101604 13 247 11.3 20.9 0.00 0.00 0.00 76 1004.6
20260508101504 13 248 11.3 20.9 0.00 0.00 0.00 76 1005.1
20260508101404 13 251 11.3 20.9 0.00 0.00 0.00 75 1004.9
20260508101304 13 248 9.7 20.9 0.00 0.00 0.00 76 1005.0
20260508101204 13 249 9.7 20.9 0.00 0.00 0.00 74 1005.0
20260508101104 13 248 9.7 20.9 0.00 0.00 0.00 76 1004.9
20260508101004 13 245 9.7 20.9 0.00 0.00 0.00 76 1004.9
20260508100925 13 242 9.7 20.9 0.00 0.00 0.00 77 1004.9
20260508100804 13 239 9.7 20.9 0.00 0.00 0.00 78 1004.9
20260508100704 13 241 9.7 20.9 0.00 0.00 0.00 75 1005.1
20260508100603 13 242 9.7 20.9 0.00 0.00 0.00 76 1004.8
20260508100504 13 242 9.7 20.9 0.00 0.00 0.00 76 1004.8
20260508100404 13 244 11.3 22.5 0.00 0.00 0.00 73 1004.7
20260508100304 13 248 11.3 22.5 0.00 0.00 0.00 77 1005.0
20260508100204 13 245 11.3 22.5 0.00 0.00 0.00 78 1004.9
20260508100104 12 244 12.9 22.5 0.00 0.00 0.00 80 1004.9
20260508100004 12 243 12.9 22.5 0.00 0.00 0.00 79 1004.8
20260508095904 12 244 12.9 22.5 0.00 0.00 0.00 76 1004.8
20260508095804 13 246 12.9 22.5 0.00 0.00 0.00 77 1004.8
20260508095704 13 246 12.9 22.5 0.00 0.00 0.00 78 1004.8
20260508095604 12 244 12.9 22.5 0.00 0.00 0.00 77 1004.7
20260508095504 12 242 14.5 22.5 0.00 0.00 0.00 76 1005.0
20260508095404 12 239 14.5 22.5 0.00 0.00 0.00 78 1005.0
20260508095325 12 236 14.5 22.5 0.00 0.00 0.00 77 1004.8
20260508095204 12 237 14.5 22.5 0.00 0.00 0.00 77 1004.8
20260508095104 12 240 14.5 24.1 0.00 0.00 0.00 78 1004.9
20260508095004 12 242 14.5 24.1 0.00 0.00 0.00 77 1004.9
20260508094925 12 242 14.5 24.1 0.00 0.00 0.00 77 1004.7
20260508094825 12 241 14.5 24.1 0.00 0.00 0.00 78 1004.9
20260508094704 12 240 14.5 24.1 0.00 0.00 0.00 79 1004.9
20260508094604 12 240 12.9 24.1 0.00 0.00 0.00 80 1004.8
20260508094504 12 239 12.9 24.1 0.00 0.00 0.00 79 1005.1
20260508094404 12 241 12.9 24.1 0.00 0.00 0.00 79 1004.9
20260508094304 12 242 11.3 24.1 0.00 0.00 0.00 78 1004.9
20260508094204 12 240 11.3 24.1 0.00 0.00 0.00 78 1004.7
20260508094104 12 239 11.3 24.1 0.00 0.00 0.00 79 1004.7
20260508094004 12 236 11.3 24.1 0.00 0.00 0.00 77 1005.0
20260508093904 13 233 9.7 20.9 0.00 0.00 0.00 80 1004.9
20260508093804 13 232 9.7 16.1 0.00 0.00 0.00 80 1004.9
20260508093704 12 235 9.7 20.9 0.00 0.00 0.00 80 1004.8
20260508093604 12 239 9.7 20.9 0.00 0.00 0.00 81 1004.7
20260508093504 12 241 9.7 20.9 0.00 0.00 0.00 80 1004.8
20260508093404 12 240 9.7 20.9 0.00 0.00 0.00 82 1004.8
20260508093304 12 239 9.7 20.9 0.00 0.00 0.00 81 1005.0
20260508093204 12 241 9.7 20.9 0.00 0.00 0.00 79 1004.8
20260508093104 12 241 9.7 20.9 0.00 0.00 0.00 81 1005.0
20260508093004 12 240 9.7 20.9 0.00 0.00 0.00 81 1004.9
20260508092904 12 241 9.7 20.9 0.00 0.00 0.00 80 1004.9
20260508092804 12 243 9.7 20.9 0.00 0.00 0.00 82 1004.7
20260508092704 12 239 9.7 20.9 0.00 0.00 0.00 82 1004.7
20260508092625 12 235 9.7 20.9 0.00 0.00 0.00 82 1004.8
20260508092504 12 237 9.7 16.1 0.00 0.00 0.00 83 1004.9
20260508092404 12 243 9.7 22.5 0.00 0.00 0.00 83 1004.6
20260508092312 12 242 9.7 22.5 0.00 0.00 0.00 83 1004.9
20260508092204 12 244 9.7 22.5 0.00 0.00 0.00 83 1004.9
20260508092104 12 244 11.3 22.5 0.00 0.00 0.00 82 1004.7
20260508092004 12 245 11.3 22.5 0.00 0.00 0.00 81 1004.7
20260508091904 12 245 11.3 22.5 0.00 0.00 0.00 82 1004.9
20260508091803 12 246 11.3 22.5 0.00 0.00 0.00 83 1004.8
20260508091704 12 247 11.3 22.5 0.00 0.00 0.00 82 1004.7
20260508091625 12 248 11.3 22.5 0.00 0.00 0.00 82 1004.7
20260508091504 11 247 11.3 22.5 0.00 0.00 0.00 82 1004.7
20260508091403 11 246 11.3 22.5 0.00 0.00 0.00 83 1004.6
20260508091304 12 247 11.3 22.5 0.00 0.00 0.00 82 1004.6
20260508091203 12 248 9.7 22.5 0.00 0.00 0.00 82 1004.9
20260508091104 12 249 9.7 17.7 0.00 0.00 0.00 83 1004.6
20260508091003 12 251 9.7 17.7 0.00 0.00 0.00 83 1004.7
20260508090904 12 253 9.7 17.7 0.00 0.00 0.00 83 1004.8
20260508090804 12 255 8.0 16.1 0.00 0.00 0.00 84 1004.8
20260508090704 12 255 8.0 16.1 0.00 0.00 0.00 83 1004.6
20260508090604 12 255 8.0 16.1 0.00 0.00 0.00 84 1004.7
20260508090525 12 257 8.0 16.1 0.00 0.00 0.00 85 1004.7
20260508090425 11 257 8.0 16.1 0.00 0.00 0.00 84 1004.7
20260508090304 11 258 8.0 16.1 0.00 0.00 0.00 86 1004.6
20260508090204 11 256 9.7 16.1 0.00 0.00 0.00 85 1004.6
20260508090125 11 254 9.7 16.1 0.00 0.00 0.00 85 1004.7
20260508090004 12 253 9.7 16.1 0.00 0.00 0.00 85 1004.8
20260508085904 12 253 9.7 16.1 0.00 0.00 0.00 85 1004.7
20260508085804 12 254 9.7 16.1 0.00 0.00 0.00 86 1004.3
20260508085704 12 254 9.7 16.1 0.00 0.00 0.00 86 1004.6
20260508085603 11 257 9.7 17.7 0.00 0.00 0.00 86 1004.5
20260508085525 11 256 9.7 17.7 0.00 0.00 0.00 86 1004.6
20260508085403 11 255 9.7 17.7 0.00 0.00 0.00 85 1004.7
20260508085306 11 256 9.7 17.7 0.00 0.00 0.00 86 1004.7
20260508085204 11 255 9.7 17.7 0.00 0.00 0.00 86 1004.6
20260508085125 11 256 9.7 17.7 0.00 0.00 0.00 86 1004.7
20260508085004 11 259 9.7 17.7 0.00 0.00 0.00 87 1004.5
20260508084904 11 259 11.3 17.7 0.00 0.00 0.00 86 1004.7
20260508084804 11 258 11.3 17.7 0.00 0.00 0.00 86 1004.5
20260508084704 11 258 11.3 17.7 0.00 0.00 0.00 85 1004.5
20260508084604 11 255 11.3 17.7 0.00 0.00 0.00 85 1004.6
20260508084504 11 256 9.7 17.7 0.00 0.00 0.00 86 1004.5
20260508084404 11 257 9.7 17.7 0.00 0.00 0.00 86 1004.7
20260508084324 11 258 9.7 17.7 0.00 0.00 0.00 86 1004.7
20260508084204 11 258 9.7 17.7 0.00 0.00 0.00 86 1004.5
20260508084125 11 260 9.7 17.7 0.00 0.00 0.00 87 1004.6
20260508084004 11 260 9.7 17.7 0.00 0.00 0.00 87 1004.7
20260508083904 11 260 9.7 17.7 0.00 0.00 0.00 87 1004.5
20260508083825 11 258 9.7 17.7 0.00 0.00 0.00 88 1004.5
20260508083704 11 258 9.7 20.9 0.00 0.00 0.00 88 1004.5
20260508083604 11 257 11.3 20.9 0.00 0.00 0.00 89 1004.7
20260508083504 11 255 11.3 20.9 0.00 0.00 0.00 88 1004.5
20260508083403 11 259 11.3 20.9 0.00 0.00 0.00 89 1004.5
20260508083304 11 261 11.3 20.9 0.00 0.00 0.00 88 1004.7
20260508083204 10 261 11.3 20.9 0.00 0.00 0.00 89 1004.4
20260508083104 10 259 11.3 20.9 0.00 0.00 0.00 88 1004.6
20260508083004 10 259 11.3 20.9 0.00 0.00 0.00 88 1004.5
20260508082904 10 260 11.3 20.9 0.00 0.00 0.00 88 1004.7
20260508082804 10 264 11.3 20.9 0.00 0.00 0.00 88 1004.6
20260508082724 10 261 11.3 20.9 0.00 0.00 0.00 88 1004.6
20260508082604 10 265 11.3 17.7 0.00 0.00 0.00 87 1004.6
20260508082503 10 265 11.3 17.7 0.00 0.00 0.00 88 1004.6
20260508082404 10 259 11.3 20.9 0.00 0.00 0.00 88 1004.5
20260508082306 10 257 11.3 20.9 0.00 0.00 0.00 89 1004.4
20260508082204 11 255 11.3 20.9 0.00 0.00 0.00 89 1004.6
20260508082104 11 255 11.3 20.9 0.00 0.00 0.00 90 1004.5
20260508082004 11 253 11.3 22.5 0.00 0.00 0.00 89 1004.3
20260508081904 11 248 11.3 22.5 0.00 0.00 0.00 90 1004.6
20260508081804 11 247 12.9 22.5 0.00 0.00 0.00 89 1004.5
20260508081725 11 249 12.9 22.5 0.00 0.00 0.00 89 1004.4
20260508081604 11 248 12.9 22.5 0.00 0.00 0.00 89 1004.6
20260508081504 11 247 12.9 22.5 0.00 0.00 0.00 89 1004.4
20260508081404 11 249 12.9 22.5 0.00 0.00 0.00 89 1004.4
20260508081304 11 249 12.9 22.5 0.00 0.00 0.00 89 1004.4
20260508081203 10 246 12.9 22.5 0.00 0.00 0.00 89 1004.5
20260508081104 11 241 12.9 22.5 0.00 0.00 0.00 89 1004.6
20260508081004 11 240 12.9 22.5 0.00 0.00 0.00 89 1004.3
20260508080904 11 242 11.3 20.9 0.00 0.00 0.00 90 1004.5
20260508080803 11 239 11.3 20.9 0.00 0.00 0.00 89 1004.5
20260508080704 11 235 11.3 20.9 0.00 0.00 0.00 90 1004.5
20260508080604 11 234 9.7 16.1 0.00 0.00 0.00 90 1004.7
20260508080504 11 235 9.7 16.1 0.00 0.00 0.00 90 1004.4
20260508080425 11 235 9.7 16.1 0.00 0.00 0.00 91 1004.4
20260508080304 11 234 9.7 14.5 0.00 0.00 0.00 91 1004.4
20260508080204 11 237 9.7 14.5 0.00 0.00 0.00 90 1004.4
20260508080104 11 241 9.7 14.5 0.00 0.00 0.00 90 1004.5
20260508080004 11 246 9.7 14.5 0.00 0.00 0.00 91 1004.4
20260508075904 11 248 9.7 14.5 0.00 0.00 0.00 91 1004.5
20260508075804 11 250 9.7 16.1 0.00 0.00 0.00 92 1004.5
20260508075704 11 250 9.7 17.7 0.00 0.00 0.00 91 1004.4
20260508075604 11 253 9.7 17.7 0.00 0.00 0.00 92 1004.5
20260508075525 10 254 9.7 17.7 0.00 0.00 0.00 92 1004.5
20260508075404 10 253 11.3 17.7 0.00 0.00 0.00 92 1004.3
20260508075308 11 253 11.3 17.7 0.00 0.00 0.00 92 1004.3
20260508075204 11 252 9.7 17.7 0.00 0.00 0.00 92 1004.4
20260508075125 10 253 9.7 17.7 0.00 0.00 0.00 93 1004.3
20260508075024 10 254 9.7 17.7 0.00 0.00 0.00 93 1004.4
20260508074904 10 251 9.7 17.7 0.00 0.00 0.00 93 1004.3
20260508074804 10 251 9.7 17.7 0.00 0.00 0.00 93 1004.3
20260508074704 10 252 9.7 17.7 0.00 0.00 0.00 93 1004.3
20260508074604 10 250 9.7 17.7 0.00 0.00 0.00 94 1004.3
20260508074504 10 250 9.7 17.7 0.00 0.00 0.00 95 1004.4
20260508074404 10 248 9.7 17.7 0.00 0.00 0.00 95 1004.3
20260508074324 10 249 9.7 14.5 0.00 0.00 0.00 95 1004.2
20260508074204 10 247 9.7 14.5 0.00 0.00 0.00 95 1004.3
20260508074103 10 244 9.7 14.5 0.00 0.00 0.00 96 1004.3
20260508074004 10 243 9.7 17.7 0.00 0.00 0.00 96 1004.3
20260508073903 10 243 9.7 17.7 0.00 0.00 0.00 96 1004.3
20260508073804 10 243 9.7 17.7 0.00 0.00 0.00 96 1004.3
20260508073703 10 241 9.7 20.9 0.00 0.00 0.00 96 1004.7
20260508073604 10 239 9.7 20.9 0.00 0.00 0.00 96 1004.3
20260508073504 10 238 9.7 20.9 0.00 0.00 0.00 96 1004.4
20260508073425 10 237 9.7 20.9 0.00 0.00 0.00 96 1004.3
20260508073304 10 235 9.7 20.9 0.00 0.00 0.00 96 1004.5
20260508073203 10 237 9.7 20.9 0.00 0.00 0.00 96 1004.1
20260508073104 10 238 9.7 20.9 0.00 0.00 0.00 96 1004.2
20260508073024 10 240 9.7 20.9 0.00 0.00 0.00 96 1004.2
20260508072904 10 238 11.3 20.9 0.00 0.00 0.00 96 1004.1
20260508072803 10 236 11.3 20.9 0.00 0.00 0.00 96 1004.3
20260508072704 10 236 11.3 20.9 0.00 0.00 0.00 96 1004.4
20260508072603 10 238 11.3 20.9 0.00 0.00 0.00 96 1004.4
20260508072504 10 238 9.7 20.9 0.00 0.00 0.00 96 1004.4
20260508072424 10 239 9.7 20.9 0.00 0.00 0.00 96 1004.2
20260508072307 10 239 9.7 20.9 0.00 0.00 0.00 96 1004.1
20260508072224 10 236 9.7 20.9 0.00 0.00 0.00 96 1004.3
20260508072104 10 235 9.7 20.9 0.00 0.00 0.00 96 1004.2
20260508072004 10 234 9.7 17.7 0.00 0.00 0.00 96 1004.3
20260508071904 10 235 9.7 20.9 0.00 0.00 0.00 97 1004.1
20260508071804 10 238 8.0 20.9 0.00 0.00 0.00 97 1004.3
20260508071703 10 238 8.0 20.9 0.00 0.00 0.00 97 1004.2
20260508071604 10 238 8.0 20.9 0.00 0.00 0.00 97 1004.2
20260508071504 10 238 8.0 20.9 0.00 0.00 0.00 98 1004.1
20260508071404 10 238 8.0 20.9 0.00 0.00 0.00 98 1004.1
20260508071304 10 239 8.0 20.9 0.00 0.00 0.00 98 1004.1
20260508071204 10 241 8.0 20.9 0.00 0.00 0.00 98 1003.9
20260508071104 10 240 8.0 20.9 0.00 0.00 0.00 98 1004.2
20260508071004 10 241 8.0 20.9 0.00 0.00 0.00 98 1004.0
20260508070903 10 240 8.0 20.9 0.00 0.00 0.00 98 1004.1
20260508070804 10 238 6.4 20.9 0.00 0.00 0.00 98 1004.0
20260508070704 10 240 6.4 14.5 0.00 0.00 0.00 98 1004.0
20260508070604 10 235 6.4 14.5 0.00 0.00 0.00 99 1004.1
20260508070525 10 236 6.4 14.5 0.00 0.00 0.00 98 1004.0
20260508070404 10 232 6.4 11.3 0.00 0.00 0.00 98 1003.8
20260508070304 10 229 6.4 11.3 0.00 0.00 0.00 99 1003.8
20260508070224 10 230 6.4 11.3 0.00 0.00 0.00 99 1003.7
20260508070104 9 226 6.4 11.3 0.00 0.00 0.00 99 1003.9
20260508070004 9 226 6.4 11.3 0.00 0.00 0.00 99 1003.9
20260508065904 9 227 6.4 11.3 0.00 0.00 0.00 99 1003.9
20260508065824 9 229 6.4 11.3 0.00 0.00 0.00 99 1003.9
20260508065725 9 228 6.4 11.3 0.00 0.00 0.00 99 1004.0
20260508065604 9 228 6.4 11.3 0.00 0.00 0.00 99 1003.9
20260508065504 9 228 6.4 11.3 0.00 0.00 0.00 99 1004.1
20260508065404 9 229 6.4 11.3 0.00 0.00 0.00 99 1004.0
20260508065306 9 230 6.4 11.3 0.00 0.00 0.00 99 1003.8
20260508065225 8 230 6.4 11.3 0.00 0.00 0.00 99 1003.8
20260508065104 8 229 6.4 11.3 0.00 0.00 0.00 99 1003.8
20260508065004 8 229 6.4 11.3 0.00 0.00 0.00 99 1003.9
20260508064925 8 228 6.4 11.3 0.00 0.00 0.00 99 1004.1
20260508064804 8 227 6.4 11.3 0.00 0.00 0.00 99 1003.8
20260508064704 8 226 6.4 11.3 0.00 0.00 0.00 99 1003.8
20260508064625 8 226 6.4 11.3 0.00 0.00 0.00 99 1003.7
20260508064525 8 229 6.4 11.3 0.00 0.00 0.00 99 1003.8
20260508064403 8 230 6.4 11.3 0.00 0.00 0.00 99 1003.8
20260508064304 8 231 6.4 11.3 0.00 0.00 0.00 99 1003.8
20260508064203 8 231 6.4 11.3 0.00 0.00 0.00 99 1003.8
20260508064104 8 234 6.4 11.3 0.00 0.00 0.00 99 1003.7
20260508064004 8 232 6.4 11.3 0.00 0.00 0.00 99 1003.8
20260508063904 8 233 6.4 11.3 0.00 0.00 0.00 99 1003.8
20260508063804 8 232 6.4 11.3 0.00 0.00 0.00 99 1003.6
20260508063703 8 232 4.8 11.3 0.00 0.00 0.00 99 1003.7
20260508063604 8 233 4.8 9.7 0.00 0.00 0.00 99 1003.8
20260508063504 8 229 4.8 9.7 0.00 0.00 0.00 99 1003.8
20260508063404 8 226 4.8 11.3 0.00 0.00 0.00 99 1003.8
20260508063304 8 227 6.4 11.3 0.00 0.00 0.00 99 1003.8
20260508063204 8 228 6.4 11.3 0.00 0.00 0.00 99 1003.6
20260508063103 8 226 4.8 11.3 0.00 0.00 0.00 99 1003.5
20260508063004 8 227 6.4 11.3 0.00 0.00 0.00 99 1003.9
20260508062903 8 225 6.4 11.3 0.00 0.00 0.00 99 1003.9
20260508062804 8 226 6.4 11.3 0.00 0.00 0.00 99 1003.9
20260508062703 8 228 6.4 11.3 0.00 0.00 0.00 99 1003.7
20260508062604 8 228 6.4 11.3 0.00 0.00 0.00 99 1003.7
20260508062504 8 229 6.4 11.3 0.00 0.00 0.00 99 1003.8
20260508062404 8 232 6.4 11.3 0.00 0.00 0.00 99 1003.6
20260508062325 8 232 6.4 9.7 0.00 0.00 0.00 99 1003.5
20260508062204 8 231 4.8 9.7 0.00 0.00 0.00 99 1003.6
20260508062104 8 231 4.8 9.7 0.00 0.00 0.00 99 1003.7
20260508062025 8 231 4.8 9.7 0.00 0.00 0.00 99 1003.8
20260508061904 8 235 4.8 9.7 0.00 0.00 0.00 99 1003.8
20260508061804 8 235 4.8 9.7 0.00 0.00 0.00 99 1003.6
20260508061704 8 236 4.8 9.7 0.00 0.00 0.00 99 1003.6
20260508061603 8 237 4.8 9.7 0.00 0.00 0.00 99 1003.7
20260508061504 8 238 4.8 9.7 0.00 0.00 0.00 99 1003.8
20260508061403 8 238 4.8 9.7 0.00 0.00 0.00 99 1003.6
20260508061304 8 237 4.8 9.7 0.00 0.00 0.00 99 1003.6
20260508061203 8 241 4.8 9.7 0.00 0.00 0.00 99 1003.8
20260508061104 8 243 4.8 6.4 0.00 0.00 0.00 99 1003.6
20260508061003 8 245 4.8 6.4 0.00 0.00 0.00 99 1003.6
20260508060904 8 244 4.8 6.4 0.00 0.00 0.00 99 1003.6
20260508060803 8 245 4.8 6.4 0.00 0.00 0.00 99 1003.3
20260508060704 8 246 3.2 6.4 0.00 0.00 0.00 99 1003.8
20260508060604 8 249 3.2 6.4 0.00 0.00 0.00 99 1003.7
20260508060504 8 248 3.2 6.4 0.00 0.00 0.00 99 1003.6
20260508060404 8 249 3.2 6.4 0.00 0.00 0.00 99 1003.5
20260508060304 8 249 3.2 6.4 0.00 0.00 0.00 99 1003.6
20260508060204 8 247 3.2 11.3 0.00 0.00 0.00 99 1003.5
20260508060105 8 244 3.2 11.3 0.00 0.00 0.00 99 1003.5
20260508060004 8 244 4.8 11.3 0.00 0.00 0.00 99 1003.6
20260508055904 8 246 4.8 11.3 0.00 0.00 0.00 99 1003.7
20260508055803 8 244 4.8 11.3 0.00 0.00 0.00 99 1003.5
20260508055704 8 242 4.8 11.3 0.00 0.00 0.00 99 1003.6
20260508055604 8 241 4.8 11.3 0.00 0.00 0.00 99 1003.5
20260508055524 8 241 4.8 11.3 0.00 0.00 0.00 99 1003.5
20260508055404 8 243 6.4 16.1 0.00 0.00 0.00 99 1003.5
20260508055306 8 241 6.4 16.1 0.00 0.00 0.00 99 1003.6
20260508055225 8 240 6.4 16.1 0.00 0.00 0.00 99 1003.4
20260508055103 8 238 8.0 16.1 0.00 0.00 0.00 99 1003.4
20260508055004 8 236 8.0 16.1 0.00 0.00 0.00 99 1003.5
20260508054903 8 234 8.0 16.1 0.00 0.00 0.00 99 1003.2
20260508054804 8 233 8.0 16.1 0.00 0.00 0.00 99 1003.5
20260508054703 8 236 8.0 16.1 0.00 0.00 0.00 99 1003.6
20260508054603 8 236 8.0 16.1 0.00 0.00 0.00 99 1003.4
20260508054504 8 234 8.0 16.1 0.00 0.00 0.00 99 1003.4
20260508054404 8 231 8.0 16.1 0.00 0.00 0.00 99 1003.3
20260508054304 8 231 8.0 16.1 0.00 0.00 0.00 99 1003.5
20260508054203 8 231 8.0 12.9 0.00 0.00 0.00 99 1003.5
20260508054104 8 234 6.4 12.9 0.00 0.00 0.00 99 1003.4
20260508054003 8 236 6.4 12.9 0.00 0.00 0.00 99 1003.2
20260508053925 8 235 6.4 12.9 0.00 0.00 0.00 99 1003.5
20260508053803 8 237 6.4 12.9 0.00 0.00 0.00 99 1003.4
20260508053704 8 233 6.4 12.9 0.00 0.00 0.00 99 1003.3
20260508053603 8 232 6.4 12.9 0.00 0.00 0.00 99 1003.3
20260508053504 8 233 6.4 11.3 0.00 0.00 0.00 99 1003.4
20260508053403 8 235 6.4 11.3 0.00 0.00 0.00 99 1003.2
20260508053325 8 235 6.4 11.3 0.00 0.00 0.00 99 1003.3
20260508053203 8 237 6.4 11.3 0.00 0.00 0.00 99 1003.1
20260508053104 8 235 6.4 11.3 0.00 0.00 0.00 99 1003.4
20260508053003 8 234 6.4 11.3 0.00 0.00 0.00 99 1003.1
20260508052903 8 234 6.4 11.3 0.00 0.00 0.00 99 1003.1
20260508052804 8 234 6.4 12.9 0.00 0.00 0.00 99 1003.1
20260508052724 8 236 6.4 12.9 0.00 0.00 0.00 99 1003.1
20260508052604 8 239 8.0 12.9 0.00 0.00 0.00 99 1003.3
20260508052524 8 240 8.0 12.9 0.00 0.00 0.00 99 1003.1
20260508052404 8 239 8.0 12.9 0.00 0.00 0.00 99 1003.0
20260508052324 8 240 8.0 12.9 0.00 0.00 0.00 99 1003.1
20260508052204 8 240 8.0 17.7 0.00 0.00 0.00 99 1003.3
20260508052124 8 241 8.0 17.7 0.00 0.00 0.00 99 1003.0
20260508052024 8 243 8.0 17.7 0.00 0.00 0.00 99 1003.2
20260508051904 8 244 8.0 17.7 0.00 0.00 0.00 98 1002.9
20260508051803 8 245 8.0 17.7 0.00 0.00 0.00 98 1003.0
20260508051703 8 244 8.0 17.7 0.00 0.00 0.00 98 1002.9
20260508051603 8 242 8.0 17.7 0.00 0.00 0.00 98 1003.0
20260508051504 8 242 8.0 17.7 0.00 0.00 0.00 98 1003.0
20260508051404 8 241 8.0 17.7 0.00 0.00 0.00 98 1003.3
20260508051304 8 242 8.0 17.7 0.00 0.00 0.00 98 1002.9
20260508051203 8 241 8.0 17.7 0.00 0.00 0.00 97 1003.0
20260508051104 8 237 8.0 16.1 0.00 0.00 0.00 97 1002.9
20260508051003 8 239 8.0 16.1 0.00 0.00 0.00 97 1003.0
20260508050904 8 238 8.0 16.1 0.00 0.00 0.00 97 1002.9
20260508050825 8 239 8.0 16.1 0.00 0.00 0.00 97 1002.9
20260508050703 8 240 8.0 16.1 0.00 0.00 0.00 96 1003.1
20260508050603 8 239 8.0 16.1 0.00 0.00 0.00 96 1002.8
20260508050524 8 240 8.0 16.1 0.00 0.00 0.00 96 1003.0
20260508050404 8 242 8.0 16.1 0.00 0.00 0.00 96 1003.1
20260508050303 8 241 8.0 16.1 0.00 0.00 0.00 96 1002.8
20260508050204 8 241 8.0 16.1 0.00 0.00 0.00 95 1002.9
20260508050104 8 242 8.0 16.1 0.00 0.00 0.00 95 1002.8
20260508050003 8 242 8.0 16.1 0.00 0.00 0.00 95 1003.1
20260508045904 8 245 8.0 16.1 0.00 0.00 0.00 95 1002.7
20260508045803 8 246 8.0 17.7 0.00 0.00 0.00 95 1002.9
20260508045725 8 245 8.0 17.7 0.00 0.00 0.00 95 1002.9
20260508045603 8 244 8.0 17.7 0.00 0.00 0.00 95 1002.8
20260508045525 8 245 8.0 17.7 0.00 0.00 0.00 95 1002.8
20260508045403 8 242 8.0 17.7 0.00 0.00 0.00 95 1003.1
20260508045306 8 243 8.0 17.7 0.00 0.00 0.00 95 1002.7
20260508045203 8 246 8.0 17.7 0.00 0.00 0.00 95 1002.7
20260508045125 8 249 8.0 17.7 0.00 0.00 0.00 95 1002.9
20260508045004 8 251 8.0 17.7 0.00 0.00 0.00 95 1002.7
20260508044925 8 252 8.0 17.7 0.00 0.00 0.00 95 1002.7
20260508044804 8 253 8.0 17.7 0.00 0.00 0.00 95 1002.8
20260508044725 8 255 8.0 17.7 0.00 0.00 0.00 95 1002.9
20260508044604 8 254 8.0 17.7 0.00 0.00 0.00 95 1002.8
20260508044503 8 254 8.0 17.7 0.00 0.00 0.00 95 1002.7
20260508044424 8 256 8.0 17.7 0.00 0.00 0.00 95 1002.7
20260508044303 8 257 8.0 17.7 0.00 0.00 0.00 95 1002.9
20260508044204 8 258 8.0 17.7 0.00 0.00 0.00 95 1002.7
20260508044125 8 256 8.0 17.7 0.00 0.00 0.00 95 1002.9
20260508044004 8 254 8.0 17.7 0.00 0.00 0.00 95 1002.7
20260508043903 8 251 9.7 17.7 0.00 0.00 0.00 95 1002.7
20260508043804 8 250 9.7 17.7 0.00 0.00 0.00 95 1002.8
20260508043703 8 248 9.7 17.7 0.00 0.00 0.00 95 1002.9
20260508043603 8 246 9.7 17.7 0.00 0.00 0.00 95 1002.7
20260508043504 8 245 9.7 17.7 0.00 0.00 0.00 95 1002.9
20260508043403 8 243 8.0 14.5 0.00 0.00 0.00 95 1002.9
20260508043303 8 245 9.7 14.5 0.00 0.00 0.00 95 1002.8
20260508043224 8 243 9.7 14.5 0.00 0.00 0.00 95 1002.8
20260508043125 8 246 9.7 14.5 0.00 0.00 0.00 95 1002.9
20260508043003 8 244 9.7 16.1 0.00 0.00 0.00 95 1002.6
20260508042904 8 242 9.7 16.1 0.00 0.00 0.00 95 1002.9
20260508042803 8 241 9.7 16.1 0.00 0.00 0.00 95 1002.5
20260508042703 8 240 9.7 16.1 0.00 0.00 0.00 95 1002.7
20260508042604 8 241 8.0 16.1 0.00 0.00 0.00 95 1002.7
20260508042503 8 242 9.7 16.1 0.00 0.00 0.00 95 1002.7
20260508042403 8 244 9.7 16.1 0.00 0.00 0.00 95 1002.6
20260508042306 8 241 9.7 16.1 0.00 0.00 0.00 95 1002.7
20260508042203 8 242 9.7 16.1 0.00 0.00 0.00 95 1002.5
20260508042103 8 243 9.7 16.1 0.00 0.00 0.00 95 1002.5
20260508042004 8 244 8.0 16.1 0.00 0.00 0.00 95 1002.7
20260508041903 8 243 8.0 16.1 0.00 0.00 0.00 95 1002.6
20260508041804 8 244 8.0 16.1 0.00 0.00 0.00 95 1002.6
20260508041703 8 244 8.0 16.1 0.00 0.00 0.00 95 1002.6
20260508041604 8 242 8.0 16.1 0.00 0.00 0.00 95 1002.5
20260508041504 8 244 8.0 16.1 0.00 0.00 0.00 95 1002.6
20260508041425 8 246 8.0 16.1 0.00 0.00 0.00 95 1002.7
20260508041303 8 246 6.4 16.1 0.00 0.00 0.00 95 1002.7
20260508041203 8 246 8.0 16.1 0.00 0.00 0.00 95 1002.9
20260508041104 8 245 8.0 16.1 0.00 0.00 0.00 95 1002.8
20260508041024 8 245 8.0 16.1 0.00 0.00 0.00 95 1002.6
20260508040925 8 246 8.0 16.1 0.00 0.00 0.00 94 1002.6
20260508040824 8 247 8.0 16.1 0.00 0.00 0.00 94 1002.6
20260508040725 8 248 8.0 16.1 0.00 0.00 0.00 94 1002.7
20260508040603 8 252 9.7 14.5 0.00 0.00 0.00 94 1002.6
20260508040504 8 250 9.7 14.5 0.00 0.00 0.00 94 1002.6
20260508040403 8 248 9.7 14.5 0.00 0.00 0.00 94 1002.7
20260508040304 8 247 9.7 16.1 0.00 0.00 0.00 94 1002.6
20260508040203 8 243 9.7 16.1 0.00 0.00 0.00 94 1002.5
20260508040104 8 241 9.7 16.1 0.00 0.00 0.00 94 1002.5
20260508040004 8 239 11.3 16.1 0.00 0.00 0.00 94 1002.5
20260508035903 8 241 11.3 16.1 0.00 0.00 0.00 94 1002.6
20260508035804 8 240 11.3 16.1 0.00 0.00 0.00 94 1002.6
20260508035703 8 240 11.3 16.1 0.00 0.00 0.00 94 1002.3
20260508035625 8 238 11.3 16.1 0.00 0.00 0.00 94 1002.4
20260508035503 8 238 11.3 17.7 0.00 0.00 0.00 93 1002.4
20260508035404 8 239 11.3 17.7 0.00 0.00 0.00 93 1002.6
20260508035306 8 240 11.3 17.7 0.00 0.00 0.00 94 1002.3
20260508035204 8 244 11.3 17.7 0.00 0.00 0.00 93 1002.4
20260508035103 8 244 11.3 17.7 0.00 0.00 0.00 93 1002.6
20260508035003 8 245 11.3 17.7 0.00 0.00 0.00 93 1002.4
20260508034904 8 243 11.3 17.7 0.00 0.00 0.00 93 1002.7
20260508034803 8 244 9.7 17.7 0.00 0.00 0.00 93 1002.5
20260508034704 8 240 9.7 17.7 0.00 0.00 0.00 93 1002.5
20260508034603 8 239 9.7 17.7 0.00 0.00 0.00 93 1002.5
20260508034504 8 239 9.7 17.7 0.00 0.00 0.00 93 1002.5
20260508034403 8 239 11.3 17.7 0.00 0.00 0.00 93 1002.6
20260508034303 8 241 11.3 17.7 0.00 0.00 0.00 93 1002.3
20260508034224 8 237 11.3 17.7 0.00 0.00 0.00 93 1002.4
20260508034103 8 237 11.3 17.7 0.00 0.00 0.00 93 1002.4
20260508034004 8 238 11.3 17.7 0.00 0.00 0.00 93 1002.6
20260508033903 8 238 11.3 17.7 0.00 0.00 0.00 93 1002.4
20260508033803 8 237 11.3 17.7 0.00 0.00 0.00 93 1002.5
20260508033724 8 236 11.3 17.7 0.00 0.00 0.00 93 1002.3
20260508033604 8 238 11.3 17.7 0.00 0.00 0.00 93 1002.1
20260508033524 8 237 11.3 17.7 0.00 0.00 0.00 93 1002.4
20260508033403 8 237 9.7 17.7 0.00 0.00 0.00 94 1002.4
20260508033303 8 236 9.7 17.7 0.00 0.00 0.00 94 1002.4
20260508033203 8 237 9.7 17.7 0.00 0.00 0.00 94 1002.2
20260508033103 8 239 9.7 17.7 0.00 0.00 0.00 94 1002.3
20260508033003 8 239 9.7 17.7 0.00 0.00 0.00 94 1002.4
20260508032904 8 239 9.7 20.9 0.00 0.00 0.00 94 1002.5
20260508032803 8 238 9.7 20.9 0.00 0.00 0.00 94 1002.5
20260508032704 8 238 11.3 20.9 0.00 0.00 0.00 94 1002.5
20260508032603 8 238 11.3 20.9 0.00 0.00 0.00 94 1002.5
20260508032504 8 238 11.3 20.9 0.00 0.00 0.00 94 1002.5
20260508032403 8 237 11.3 20.9 0.00 0.00 0.00 94 1002.4
20260508032306 8 237 11.3 20.9 0.00 0.00 0.00 94 1002.4
20260508032203 8 236 11.3 20.9 0.00 0.00 0.00 94 1002.5
20260508032103 8 232 11.3 20.9 0.00 0.00 0.00 93 1002.5
20260508032003 8 232 11.3 20.9 0.00 0.00 0.00 93 1002.5
20260508031903 8 230 9.7 20.9 0.00 0.00 0.00 93 1002.6
20260508031804 8 230 9.7 20.9 0.00 0.00 0.00 93 1002.5
20260508031703 8 231 9.7 20.9 0.00 0.00 0.00 93 1002.5
20260508031604 8 231 9.7 16.1 0.00 0.00 0.00 93 1002.4
20260508031504 8 231 9.7 16.1 0.00 0.00 0.00 93 1002.4
20260508031403 8 231 9.7 16.1 0.00 0.00 0.00 92 1002.3
20260508031303 8 229 9.7 16.1 0.00 0.00 0.00 92 1002.3
20260508031203 8 228 9.7 16.1 0.00 0.00 0.00 92 1002.4
20260508031103 8 228 9.7 16.1 0.00 0.00 0.00 92 1002.3
20260508031003 8 229 9.7 16.1 0.00 0.00 0.00 92 1002.5
20260508030904 8 231 9.7 16.1 0.00 0.00 0.00 92 1002.4
20260508030803 8 229 11.3 17.7 0.00 0.00 0.00 91 1002.5
20260508030703 8 227 11.3 17.7 0.00 0.00 0.00 91 1002.4
20260508030624 8 228 11.3 17.7 0.00 0.00 0.00 91 1002.3
20260508030503 8 229 11.3 17.7 0.00 0.00 0.00 91 1002.5
20260508030404 8 230 11.3 17.7 0.00 0.00 0.00 91 1002.5
20260508030303 8 232 11.3 20.9 0.00 0.00 0.00 91 1002.4
20260508030203 8 234 11.3 20.9 0.00 0.00 0.00 90 1002.4
20260508030125 8 235 11.3 20.9 0.00 0.00 0.00 90 1002.4
20260508030025 8 237 11.3 20.9 0.00 0.00 0.00 90 1002.5
20260508025903 8 236 11.3 20.9 0.00 0.00 0.00 90 1002.2
20260508025804 8 236 9.7 20.9 0.00 0.00 0.00 90 1002.4
20260508025703 8 239 9.7 20.9 0.00 0.00 0.00 90 1002.3
20260508025603 8 239 9.7 20.9 0.00 0.00 0.00 90 1002.4
20260508025504 8 239 9.7 20.9 0.00 0.00 0.00 90 1002.5
20260508025403 8 237 9.7 20.9 0.00 0.00 0.00 90 1002.3
20260508025306 8 237 9.7 20.9 0.00 0.00 0.00 90 1002.4
20260508025203 8 239 8.0 16.1 0.00 0.00 0.00 90 1002.4
20260508025104 8 237 8.0 16.1 0.00 0.00 0.00 90 1002.4
20260508025003 8 236 8.0 16.1 0.00 0.00 0.00 90 1002.5
20260508024925 8 234 8.0 16.1 0.00 0.00 0.00 90 1002.6
20260508024803 8 235 9.7 16.1 0.00 0.00 0.00 90 1002.4
20260508024704 8 236 8.0 17.7 0.00 0.00 0.00 90 1002.5
20260508024603 8 239 9.7 17.7 0.00 0.00 0.00 90 1002.5
20260508024525 8 238 9.7 17.7 0.00 0.00 0.00 90 1002.3
20260508024403 8 240 8.0 17.7 0.00 0.00 0.00 90 1002.4
20260508024303 8 239 8.0 17.7 0.00 0.00 0.00 90 1002.2
20260508024224 8 239 8.0 17.7 0.00 0.00 0.00 90 1002.3
20260508024103 8 239 8.0 17.7 0.00 0.00 0.00 91 1002.4
20260508024025 8 241 8.0 17.7 0.00 0.00 0.00 90 1002.4
20260508023903 8 244 8.0 17.7 0.00 0.00 0.00 90 1002.6
20260508023803 8 245 8.0 17.7 0.00 0.00 0.00 91 1002.5
20260508023724 8 247 8.0 17.7 0.00 0.00 0.00 91 1002.3
20260508023604 8 244 8.0 12.9 0.00 0.00 0.00 91 1002.3
20260508023503 8 243 8.0 12.9 0.00 0.00 0.00 91 1002.6
20260508023404 8 242 6.4 12.9 0.00 0.00 0.00 91 1002.6
20260508023304 8 246 6.4 12.9 0.00 0.00 0.00 91 1002.3
20260508023203 8 247 6.4 12.9 0.00 0.00 0.00 91 1002.3
20260508023124 8 249 6.4 11.3 0.00 0.00 0.00 92 1002.3
20260508023003 8 247 6.4 12.9 0.00 0.00 0.00 91 1002.4
20260508022904 8 249 6.4 12.9 0.00 0.00 0.00 92 1002.4
20260508022803 8 250 6.4 12.9 0.00 0.00 0.00 91 1002.4
20260508022703 8 248 6.4 12.9 0.00 0.00 0.00 91 1002.3
20260508022603 8 250 6.4 14.5 0.00 0.00 0.00 92 1002.3
20260508022503 8 248 6.4 14.5 0.00 0.00 0.00 92 1002.5
20260508022403 8 246 8.0 14.5 0.00 0.00 0.00 91 1002.4
20260508022306 8 245 8.0 14.5 0.00 0.00 0.00 91 1002.3
20260508022224 8 242 8.0 14.5 0.00 0.00 0.00 91 1002.4
20260508022103 8 238 8.0 14.5 0.00 0.00 0.00 91 1002.7
20260508022003 8 237 8.0 14.5 0.00 0.00 0.00 91 1002.4
20260508021903 8 235 8.0 14.5 0.00 0.00 0.00 91 1002.4
20260508021824 8 232 8.0 14.5 0.00 0.00 0.00 91 1002.3
20260508021703 8 231 8.0 14.5 0.00 0.00 0.00 91 1002.4
20260508021603 8 230 8.0 14.5 0.00 0.00 0.00 91 1002.3
20260508021504 8 228 8.0 14.5 0.00 0.00 0.00 91 1002.1
20260508021403 8 226 8.0 14.5 0.00 0.00 0.00 91 1002.3
20260508021303 8 224 8.0 14.5 0.00 0.00 0.00 92 1002.3
20260508021203 8 223 8.0 14.5 0.00 0.00 0.00 92 1002.3
20260508021103 8 224 8.0 14.5 0.00 0.00 0.00 92 1002.4
20260508021003 8 223 8.0 14.5 0.00 0.00 0.00 92 1002.3
20260508020903 8 220 6.4 14.5 0.00 0.00 0.00 92 1002.2
20260508020803 8 220 6.4 12.9 0.00 0.00 0.00 92 1002.4
20260508020703 8 220 6.4 12.9 0.00 0.00 0.00 92 1001.9
20260508020604 8 220 6.4 12.9 0.00 0.00 0.00 92 1002.2
20260508020503 8 221 6.4 12.9 0.00 0.00 0.00 92 1002.3
20260508020403 8 221 6.4 12.9 0.00 0.00 0.00 92 1002.1
20260508020303 8 222 6.4 12.9 0.00 0.00 0.00 92 1002.1
20260508020203 8 226 6.4 12.9 0.00 0.00 0.00 92 1002.2
20260508020124 8 226 6.4 14.5 0.00 0.00 0.00 92 1002.0
20260508020004 8 226 6.4 14.5 0.00 0.00 0.00 92 1002.3
20260508015903 8 228 6.4 14.5 0.00 0.00 0.00 91 1002.2
20260508015803 8 229 6.4 14.5 0.00 0.00 0.00 91 1002.2
20260508015704 8 232 6.4 14.5 0.00 0.00 0.00 91 1002.2
20260508015603 8 231 6.4 14.5 0.00 0.00 0.00 91 1002.2
20260508015504 8 230 6.4 14.5 0.00 0.00 0.00 91 1002.2
20260508015404 8 232 8.0 14.5 0.00 0.00 0.00 91 1002.3
20260508015306 8 233 8.0 14.5 0.00 0.00 0.00 91 1002.2
20260508015203 8 234 8.0 14.5 0.00 0.00 0.00 91 1002.1
20260508015103 8 235 8.0 14.5 0.00 0.00 0.00 91 1002.3
20260508015024 8 236 8.0 14.5 0.00 0.00 0.00 91 1002.6
20260508014925 8 238 8.0 12.9 0.00 0.00 0.00 91 1002.3
20260508014803 8 241 8.0 14.5 0.00 0.00 0.00 91 1002.5
20260508014703 8 240 8.0 16.1 0.00 0.00 0.00 91 1002.3
20260508014603 8 242 8.0 16.1 0.00 0.00 0.00 91 1002.4
20260508014504 8 244 8.0 16.1 0.00 0.00 0.00 91 1002.2
20260508014403 8 244 8.0 16.1 0.00 0.00 0.00 91 1002.2
20260508014304 8 245 8.0 16.1 0.00 0.00 0.00 91 1002.3
20260508014203 8 244 9.7 16.1 0.00 0.00 0.00 90 1002.3
20260508014103 8 242 9.7 16.1 0.00 0.00 0.00 90 1002.4
20260508014004 8 241 9.7 16.1 0.00 0.00 0.00 90 1002.3
20260508013903 8 241 9.7 16.1 0.00 0.00 0.00 90 1002.5
20260508013803 8 242 9.7 16.1 0.00 0.00 0.00 90 1002.3
20260508013703 8 242 9.7 16.1 0.00 0.00 0.00 90 1002.5
20260508013604 8 241 9.7 16.1 0.00 0.00 0.00 90 1002.4
20260508013503 8 241 9.7 16.1 0.00 0.00 0.00 90 1002.4
20260508013424 8 242 9.7 16.1 0.00 0.00 0.00 90 1002.5
20260508013324 8 241 9.7 14.5 0.00 0.00 0.00 90 1002.4
20260508013203 8 240 9.7 14.5 0.00 0.00 0.00 90 1002.4
20260508013103 8 240 8.0 14.5 0.00 0.00 0.00 91 1002.4
20260508013003 8 241 8.0 14.5 0.00 0.00 0.00 90 1002.6
20260508012925 8 240 8.0 14.5 0.00 0.00 0.00 90 1002.4
20260508012803 8 239 8.0 14.5 0.00 0.00 0.00 90 1002.6
20260508012703 8 238 8.0 14.5 0.00 0.00 0.00 90 1002.5
20260508012624 8 239 8.0 14.5 0.00 0.00 0.00 90 1002.5
20260508012504 8 239 8.0 14.5 0.00 0.00 0.00 90 1002.4
20260508012424 8 238 8.0 12.9 0.00 0.00 0.00 90 1002.4
20260508012307 8 241 8.0 12.9 0.00 0.00 0.00 90 1002.3
20260508012203 8 243 8.0 12.9 0.00 0.00 0.00 90 1002.4
20260508012103 8 243 8.0 12.9 0.00 0.00 0.00 90 1002.4
20260508012004 8 245 8.0 12.9 0.00 0.00 0.00 90 1002.5
20260508011903 8 246 8.0 12.9 0.00 0.00 0.00 90 1002.5
20260508011825 8 246 8.0 12.9 0.00 0.00 0.00 90 1002.5
20260508011703 8 250 8.0 12.9 0.00 0.00 0.00 90 1002.7
20260508011603 8 249 8.0 12.9 0.00 0.00 0.00 90 1002.6
20260508011503 8 250 8.0 12.9 0.00 0.00 0.00 90 1002.6
20260508011403 8 251 8.0 12.9 0.00 0.00 0.00 90 1002.7
20260508011303 8 251 8.0 12.9 0.00 0.00 0.00 90 1002.5
20260508011204 8 252 8.0 12.9 0.00 0.00 0.00 90 1002.6
20260508011103 8 252 8.0 14.5 0.00 0.00 0.00 90 1002.8
20260508011003 8 251 8.0 14.5 0.00 0.00 0.00 90 1002.5
20260508010903 8 250 8.0 14.5 0.00 0.00 0.00 90 1002.5
20260508010803 8 250 8.0 14.5 0.00 0.00 0.00 90 1002.6
20260508010703 8 249 8.0 14.5 0.00 0.00 0.00 90 1002.4
20260508010624 8 248 8.0 14.5 0.00 0.00 0.00 90 1002.4
20260508010503 8 246 6.4 14.5 0.00 0.00 0.00 90 1002.5
20260508010403 8 246 6.4 14.5 0.00 0.00 0.00 90 1002.6
20260508010324 8 247 6.4 14.5 0.00 0.00 0.00 90 1002.8
20260508010203 8 248 6.4 14.5 0.00 0.00 0.00 90 1002.6
20260508010103 8 249 6.4 14.5 0.00 0.00 0.00 90 1002.5
20260508010003 8 250 6.4 12.9 0.00 0.00 0.00 90 1002.4
20260508005903 8 250 6.4 12.9 0.00 0.00 0.00 90 1002.5
20260508005803 8 249 6.4 12.9 0.00 0.00 0.00 90 1002.6
20260508005703 8 250 6.4 12.9 0.00 0.00 0.00 90 1002.5
20260508005624 8 249 6.4 12.9 0.00 0.00 0.00 90 1002.6
20260508005503 8 249 6.4 12.9 0.00 0.00 0.00 90 1002.5
20260508005403 8 247 6.4 12.9 0.00 0.00 0.00 90 1002.5
20260508005305 8 247 6.4 12.9 0.00 0.00 0.00 90 1002.5
20260508005203 8 243 6.4 12.9 0.00 0.00 0.00 90 1002.5
20260508005103 8 243 6.4 12.9 0.00 0.00 0.00 90 1002.6
20260508005024 8 242 6.4 11.3 0.00 0.00 0.00 90 1002.8
20260508004903 8 243 6.4 11.3 0.00 0.00 0.00 90 1002.6
20260508004803 8 243 6.4 11.3 0.00 0.00 0.00 90 1002.6
20260508004703 8 242 6.4 11.3 0.00 0.00 0.00 90 1002.7
20260508004604 8 241 6.4 11.3 0.00 0.00 0.00 90 1002.4
20260508004503 8 239 6.4 11.3 0.00 0.00 0.00 90 1002.4
20260508004403 8 238 6.4 11.3 0.00 0.00 0.00 90 1002.4
20260508004324 8 236 6.4 11.3 0.00 0.00 0.00 90 1002.5
20260508004203 8 237 4.8 11.3 0.00 0.00 0.00 91 1002.7
20260508004124 8 238 4.8 11.3 0.00 0.00 0.00 91 1002.7
20260508004003 8 233 6.4 11.3 0.00 0.00 0.00 91 1002.6
20260508003903 8 235 4.8 12.9 0.00 0.00 0.00 91 1002.3
20260508003803 8 235 6.4 12.9 0.00 0.00 0.00 91 1002.7
20260508003703 8 235 6.4 12.9 0.00 0.00 0.00 91 1002.4
20260508003624 8 235 6.4 12.9 0.00 0.00 0.00 91 1002.8
20260508003503 8 236 6.4 12.9 0.00 0.00 0.00 91 1002.4
20260508003403 8 235 6.4 12.9 0.00 0.00 0.00 91 1002.6
20260508003303 8 234 6.4 12.9 0.00 0.00 0.00 91 1002.5
20260508003203 8 234 8.0 12.9 0.00 0.00 0.00 90 1002.5
20260508003103 8 232 6.4 12.9 0.00 0.00 0.00 90 1002.4
20260508003024 8 232 8.0 12.9 0.00 0.00 0.00 90 1002.4
20260508002903 8 230 6.4 12.9 0.00 0.00 0.00 90 1002.6
20260508002803 8 226 6.4 12.9 0.00 0.00 0.00 91 1002.4
20260508002703 8 222 6.4 12.9 0.00 0.00 0.00 91 1002.4
20260508002603 8 222 6.4 12.9 0.00 0.00 0.00 91 1002.4
20260508002503 8 223 6.4 12.9 0.00 0.00 0.00 91 1002.6
20260508002424 8 223 6.4 12.9 0.00 0.00 0.00 91 1002.5
20260508002306 8 226 6.4 11.3 0.00 0.00 0.00 91 1002.5
20260508002203 8 225 6.4 11.3 0.00 0.00 0.00 91 1002.5
20260508002103 8 228 6.4 11.3 0.00 0.00 0.00 91 1002.6
20260508002003 8 230 4.8 11.3 0.00 0.00 0.00 91 1002.6
20260508001924 8 231 6.4 11.3 0.00 0.00 0.00 91 1002.5
20260508001803 8 235 6.4 11.3 0.00 0.00 0.00 91 1002.4
20260508001703 8 239 6.4 11.3 0.00 0.00 0.00 91 1002.4
20260508001624 8 240 6.4 11.3 0.00 0.00 0.00 91 1002.6
20260508001504 8 243 6.4 11.3 0.00 0.00 0.00 91 1002.6
20260508001403 8 244 6.4 11.3 0.00 0.00 0.00 91 1002.4
20260508001303 8 245 6.4 11.3 0.00 0.00 0.00 91 1002.5
20260508001203 8 246 6.4 11.3 0.00 0.00 0.00 91 1002.8
20260508001103 8 247 6.4 11.3 0.00 0.00 0.00 91 1002.6
20260508001003 8 247 6.4 11.3 0.00 0.00 0.00 91 1002.5
20260508000924 8 248 4.8 11.3 0.00 0.00 0.00 91 1002.6
20260508000803 8 247 4.8 11.3 0.00 0.00 0.00 91 1002.6
20260508000703 8 247 4.8 11.3 0.00 0.00 0.00 91 1002.5
20260508000603 8 248 4.8 11.3 0.00 0.00 0.00 91 1002.4
20260508000503 8 247 4.8 11.3 0.00 0.00 0.00 91 1002.4
20260508000404 8 247 4.8 11.3 0.00 0.00 0.00 90 1002.8
20260508000305 8 246 4.8 11.3 0.00 0.00 0.00 90 1002.5
20260508000204 8 247 4.8 11.3 0.00 0.00 0.00 90 1002.6
20260508000003 8 244 4.8 9.7 0.00 0.00 0.00 90 1002.7
20260507235904 8 243 4.8 9.7 0.00 0.00 0.00 90 1002.5
20260507235803 8 241 4.8 9.7 0.00 0.00 0.00 90 1002.6
20260507235703 8 240 4.8 9.7 0.00 0.00 0.00 90 1002.5
20260507235603 8 238 4.8 9.7 0.00 0.00 0.00 90 1002.5
20260507235503 8 238 4.8 9.7 0.00 0.00 0.00 90 1002.5
20260507235403 8 238 4.8 9.7 0.00 0.00 0.00 90 1002.6
20260507235306 8 237 4.8 9.7 0.00 0.00 0.00 90 1002.3
20260507235203 8 235 4.8 9.7 0.00 0.00 0.00 90 1002.6
20260507235124 8 234 4.8 9.7 0.00 0.00 0.00 90 1002.7
20260507235004 8 234 4.8 9.7 0.00 0.00 0.00 90 1002.5
20260507234903 8 234 4.8 9.7 0.00 0.00 0.00 90 1002.6
20260507234825 8 235 4.8 9.7 0.00 0.00 0.00 90 1002.7
20260507234703 8 233 4.8 11.3 0.00 0.00 0.00 91 1002.6
20260507234624 8 234 6.4 11.3 0.00 0.00 0.00 91 1002.5
20260507234503 8 233 6.4 11.3 0.00 0.00 0.00 91 1002.3
20260507234403 8 232 6.4 11.3 0.00 0.00 0.00 91 1002.5
20260507234303 8 234 6.4 11.3 0.00 0.00 0.00 91 1002.5
20260507234203 8 235 6.4 11.3 0.00 0.00 0.00 91 1002.3
20260507234103 8 234 6.4 11.3 0.00 0.00 0.00 91 1002.3
20260507234003 8 233 6.4 11.3 0.00 0.00 0.00 91 1002.4
20260507233904 8 236 6.4 11.3 0.00 0.00 0.00 91 1002.4
20260507233824 8 234 6.4 12.9 0.00 0.00 0.00 91 1002.4
20260507233703 8 233 6.4 12.9 0.00 0.00 0.00 91 1002.5
20260507233603 8 231 6.4 12.9 0.00 0.00 0.00 91 1002.5
20260507233503 8 228 6.4 12.9 0.00 0.00 0.00 91 1002.5
20260507233403 8 226 6.4 12.9 0.00 0.00 0.00 91 1002.5
20260507233303 8 226 6.4 12.9 0.00 0.00 0.00 91 1002.5
20260507233203 8 222 6.4 12.9 0.00 0.00 0.00 91 1002.3
20260507233103 8 222 6.4 12.9 0.00 0.00 0.00 91 1002.3
20260507233003 8 221 6.4 12.9 0.00 0.00 0.00 92 1002.3
20260507232903 8 220 6.4 12.9 0.00 0.00 0.00 92 1002.3
20260507232803 8 220 6.4 12.9 0.00 0.00 0.00 92 1002.2
20260507232703 8 219 6.4 11.3 0.00 0.00 0.00 92 1002.2
20260507232603 8 220 6.4 11.3 0.00 0.00 0.00 91 1002.3
20260507232503 8 223 6.4 11.3 0.00 0.00 0.00 91 1002.3
20260507232424 8 226 6.4 11.3 0.00 0.00 0.00 91 1002.4
20260507232306 8 223 6.4 11.3 0.00 0.00 0.00 91 1001.9
20260507232203 8 223 6.4 11.3 0.00 0.00 0.00 91 1002.1
20260507232103 8 225 6.4 11.3 0.00 0.00 0.00 92 1002.4
20260507232003 8 226 6.4 11.3 0.00 0.00 0.00 92 1002.4
20260507231903 8 227 6.4 11.3 0.00 0.00 0.00 92 1002.5
20260507231803 8 224 4.8 9.7 0.00 0.00 0.00 92 1002.3
20260507231703 8 224 4.8 9.7 0.00 0.00 0.00 92 1002.3
20260507231624 8 226 4.8 9.7 0.00 0.00 0.00 92 1002.3
20260507231524 8 225 4.8 9.7 0.00 0.00 0.00 92 1002.3
20260507231403 8 228 4.8 9.7 0.00 0.00 0.00 92 1002.4
20260507231303 8 230 4.8 9.7 0.00 0.00 0.00 92 1002.3
20260507231203 8 230 4.8 9.7 0.00 0.00 0.00 92 1002.5
20260507231103 8 232 4.8 6.4 0.00 0.00 0.00 92 1002.5
20260507231003 8 231 4.8 6.4 0.00 0.00 0.00 92 1002.1
20260507230903 8 228 4.8 6.4 0.00 0.00 0.00 92 1002.4
20260507230824 8 225 3.2 6.4 0.00 0.00 0.00 92 1002.1
20260507230703 8 229 4.8 6.4 0.00 0.00 0.00 92 1002.2
20260507230603 8 227 4.8 11.3 0.00 0.00 0.00 92 1002.1
20260507230503 8 224 4.8 12.9 0.00 0.00 0.00 92 1002.1
20260507230403 8 219 4.8 12.9 0.00 0.00 0.00 92 1002.3
20260507230303 8 218 4.8 12.9 0.00 0.00 0.00 92 1002.1
20260507230203 8 219 4.8 12.9 0.00 0.00 0.00 92 1002.1
20260507230003 8 217 4.8 12.9 0.00 0.00 0.00 92 1002.1
20260507225903 8 219 4.8 12.9 0.00 0.00 0.00 92 1002.1
20260507225803 8 220 4.8 12.9 0.00 0.00 0.00 92 1002.2
20260507225703 8 221 4.8 12.9 0.00 0.00 0.00 92 1002.2
20260507225624 8 220 6.4 12.9 0.00 0.00 0.00 92 1002.3
20260507225503 8 222 4.8 12.9 0.00 0.00 0.00 92 1002.3
20260507225403 8 223 4.8 11.3 0.00 0.00 0.00 92 1002.3
20260507225324 8 224 4.8 11.3 0.00 0.00 0.00 92 1002.3
20260507225203 8 226 4.8 11.3 0.00 0.00 0.00 91 1002.1
20260507225103 8 228 4.8 11.3 0.00 0.00 0.00 91 1002.2
20260507225024 8 229 4.8 11.3 0.00 0.00 0.00 91 1002.2
20260507224924 8 230 4.8 11.3 0.00 0.00 0.00 91 1002.2
20260507224803 8 231 4.8 11.3 0.00 0.00 0.00 91 1002.1
20260507224703 8 229 4.8 11.3 0.00 0.00 0.00 91 1002.4
20260507224604 8 232 4.8 9.7 0.00 0.00 0.00 91 1002.2
20260507224504 8 233 4.8 9.7 0.00 0.00 0.00 91 1002.3
20260507224403 8 233 4.8 9.7 0.00 0.00 0.00 91 1002.2
20260507224303 8 233 4.8 9.7 0.00 0.00 0.00 91 1002.1
20260507224224 8 231 4.8 9.7 0.00 0.00 0.00 91 1002.3
20260507224103 8 229 6.4 9.7 0.00 0.00 0.00 91 1002.4
20260507224003 8 229 4.8 9.7 0.00 0.00 0.00 91 1002.1
20260507223903 8 229 4.8 9.7 0.00 0.00 0.00 90 1002.1
20260507223803 8 230 4.8 9.7 0.00 0.00 0.00 91 1002.1
20260507223724 8 231 4.8 9.7 0.00 0.00 0.00 91 1002.1
20260507223603 8 231 4.8 11.3 0.00 0.00 0.00 90 1002.1
20260507223503 8 232 4.8 11.3 0.00 0.00 0.00 90 1002.1
20260507223403 8 233 4.8 11.3 0.00 0.00 0.00 90 1002.3
20260507223324 8 233 4.8 11.3 0.00 0.00 0.00 90 1002.3
20260507223203 8 236 4.8 11.3 0.00 0.00 0.00 90 1002.3
20260507223124 8 237 4.8 11.3 0.00 0.00 0.00 90 1002.3
20260507223003 8 238 4.8 11.3 0.00 0.00 0.00 90 1002.4
20260507222903 8 239 6.4 11.3 0.00 0.00 0.00 90 1002.3
20260507222803 8 238 6.4 11.3 0.00 0.00 0.00 90 1002.3
20260507222704 8 238 6.4 11.3 0.00 0.00 0.00 89 1002.2
20260507222603 8 241 6.4 11.3 0.00 0.00 0.00 89 1002.2
20260507222524 8 242 6.4 11.3 0.00 0.00 0.00 89 1002.3
20260507222403 8 241 6.4 11.3 0.00 0.00 0.00 89 1002.2
20260507222306 8 242 6.4 11.3 0.00 0.00 0.00 89 1002.2
20260507222203 8 243 6.4 11.3 0.00 0.00 0.00 89 1002.2
20260507222103 8 241 6.4 11.3 0.00 0.00 0.00 89 1002.2
20260507222003 8 242 6.4 11.3 0.00 0.00 0.00 89 1002.2
20260507221903 8 243 6.4 11.3 0.00 0.00 0.00 89 1002.0
20260507221824 8 244 6.4 11.3 0.00 0.00 0.00 89 1002.0
20260507221703 8 245 6.4 9.7 0.00 0.00 0.00 89 1002.1
20260507221603 8 246 6.4 9.7 0.00 0.00 0.00 89 1002.1
20260507221503 8 247 6.4 9.7 0.00 0.00 0.00 89 1002.4
20260507221403 8 250 6.4 11.3 0.00 0.00 0.00 88 1002.2
20260507221303 8 249 6.4 14.5 0.00 0.00 0.00 88 1002.1
20260507221203 8 249 6.4 14.5 0.00 0.00 0.00 88 1002.3
20260507221103 8 249 6.4 14.5 0.00 0.00 0.00 88 1002.3
20260507221003 8 249 6.4 14.5 0.00 0.00 0.00 88 1002.3
20260507220903 8 248 6.4 14.5 0.00 0.00 0.00 88 1002.2
20260507220824 8 248 6.4 14.5 0.00 0.00 0.00 88 1002.1
20260507220703 8 247 6.4 14.5 0.00 0.00 0.00 88 1002.3
20260507220603 8 247 6.4 14.5 0.00 0.00 0.00 88 1002.2
20260507220503 8 245 6.4 14.5 0.00 0.00 0.00 88 1002.0
20260507220403 8 243 6.4 14.5 0.00 0.00 0.00 87 1002.3
20260507220303 8 243 6.4 14.5 0.00 0.00 0.00 87 1002.2
20260507220203 8 243 6.4 11.3 0.00 0.00 0.00 87 1002.3
20260507220003 9 239 6.4 11.3 0.00 0.00 0.00 87 1002.3
20260507215924 9 239 6.4 11.3 0.00 0.00 0.00 87 1002.2
20260507215803 9 238 6.4 11.3 0.00 0.00 0.00 87 1002.0
20260507215703 9 239 6.4 11.3 0.00 0.00 0.00 87 1002.2
20260507215603 9 236 6.4 11.3 0.00 0.00 0.00 87 1002.2
20260507215503 9 237 6.4 11.3 0.00 0.00 0.00 87 1002.3
20260507215403 9 238 6.4 11.3 0.00 0.00 0.00 87 1002.3
20260507215306 9 239 6.4 11.3 0.00 0.00 0.00 87 1002.2
20260507215203 9 240 6.4 11.3 0.00 0.00 0.00 86 1002.2
20260507215124 9 242 6.4 11.3 0.00 0.00 0.00 87 1002.2
20260507215003 9 245 6.4 11.3 0.00 0.00 0.00 86 1002.1
20260507214903 9 246 6.4 11.3 0.00 0.00 0.00 86 1002.4
20260507214824 9 247 6.4 11.3 0.00 0.00 0.00 86 1002.4
20260507214703 9 250 6.4 11.3 0.00 0.00 0.00 86 1002.2
20260507214603 9 252 4.8 11.3 0.00 0.00 0.00 86 1002.2
20260507214503 9 252 6.4 11.3 0.00 0.00 0.00 86 1002.3
20260507214424 9 252 4.8 11.3 0.00 0.00 0.00 86 1002.3
20260507214303 9 251 6.4 11.3 0.00 0.00 0.00 85 1002.2
20260507214203 9 250 6.4 11.3 0.00 0.00 0.00 85 1002.2
20260507214124 9 248 6.4 11.3 0.00 0.00 0.00 85 1002.2
20260507214003 9 245 4.8 11.3 0.00 0.00 0.00 85 1002.2
20260507213924 9 245 4.8 11.3 0.00 0.00 0.00 85 1002.2
20260507213824 9 244 4.8 11.3 0.00 0.00 0.00 85 1002.3
20260507213703 9 243 6.4 11.3 0.00 0.00 0.00 85 1002.0
20260507213624 9 242 6.4 11.3 0.00 0.00 0.00 85 1002.1
20260507213525 9 240 4.8 11.3 0.00 0.00 0.00 85 1002.2
20260507213424 9 239 6.4 11.3 0.00 0.00 0.00 85 1002.2
20260507213303 9 237 6.4 11.3 0.00 0.00 0.00 85 1002.1
20260507213203 9 239 4.8 11.3 0.00 0.00 0.00 85 1002.1
20260507213103 9 241 4.8 11.3 0.00 0.00 0.00 84 1002.1
20260507213003 9 238 4.8 11.3 0.00 0.00 0.00 84 1002.1
20260507212905 9 237 6.4 11.3 0.00 0.00 0.00 84 1002.2
20260507212824 9 238 6.4 11.3 0.00 0.00 0.00 84 1002.2
20260507212703 9 237 6.4 11.3 0.00 0.00 0.00 84 1002.0
20260507212603 9 239 6.4 12.9 0.00 0.00 0.00 84 1002.0
20260507212503 9 241 6.4 12.9 0.00 0.00 0.00 84 1002.0
20260507212403 9 241 6.4 12.9 0.00 0.00 0.00 84 1002.0
20260507212306 9 241 6.4 12.9 0.00 0.00 0.00 84 1002.2
20260507212203 9 241 6.4 12.9 0.00 0.00 0.00 84 1002.2
20260507212103 9 243 6.4 12.9 0.00 0.00 0.00 84 1002.1
20260507212003 9 246 4.8 12.9 0.00 0.00 0.00 84 1002.2
20260507211903 9 246 4.8 12.9 0.00 0.00 0.00 84 1002.2
20260507211803 9 246 4.8 12.9 0.00 0.00 0.00 84 1002.1
20260507211704 9 246 4.8 12.9 0.00 0.00 0.00 84 1002.1
20260507211604 9 243 4.8 12.9 0.00 0.00 0.00 84 1002.0
20260507211504 9 242 4.8 12.9 0.00 0.00 0.00 84 1002.1
20260507211405 9 240 4.8 9.7 0.00 0.00 0.00 84 1002.1
20260507211305 9 233 4.8 9.7 0.00 0.00 0.00 84 1002.0
20260507211225 9 230 4.8 9.7 0.00 0.00 0.00 84 1002.0
20260507211104 9 222 4.8 9.7 0.00 0.00 0.00 84 1002.0
20260507211004 9 220 4.8 9.7 0.00 0.00 0.00 84 1002.1
20260507210905 9 219 4.8 9.7 0.00 0.00 0.00 84 1001.9
20260507210804 9 219 4.8 9.7 0.00 0.00 0.00 84 1002.1
20260507210704 9 220 4.8 11.3 0.00 0.00 0.00 83 1002.0
20260507210625 9 218 4.8 11.3 0.00 0.00 0.00 83 1002.1
20260507210526 9 219 4.8 11.3 0.00 0.00 0.00 83 1002.0
20260507210404 10 222 4.8 11.3 0.00 0.00 0.00 83 1002.0
20260507210304 10 226 4.8 11.3 0.00 0.00 0.00 83 1002.1
20260507210205 10 228 4.8 11.3 0.00 0.00 0.00 83 1002.2
20260507210104 10 232 4.8 11.3 0.00 0.00 0.00 83 1002.0
20260507210005 10 232 4.8 11.3 0.00 0.00 0.00 83 1002.2
20260507205904 10 234 4.8 11.3 0.00 0.00 0.00 83 1002.1
20260507205805 10 234 4.8 11.3 0.00 0.00 0.00 83 1002.2
20260507205725 10 235 4.8 11.3 0.00 0.00 0.00 82 1002.2
20260507205604 10 237 4.8 11.3 0.00 0.00 0.00 82 1002.1
20260507205525 10 235 4.8 11.3 0.00 0.00 0.00 82 1002.1
20260507205425 10 235 4.8 11.3 0.00 0.00 0.00 82 1001.9
20260507205325 10 236 4.8 9.7 0.00 0.00 0.00 82 1002.0
20260507205205 10 235 4.8 9.7 0.00 0.00 0.00 82 1002.1
20260507205125 10 233 4.8 9.7 0.00 0.00 0.00 82 1002.2
20260507205004 10 234 4.8 9.7 0.00 0.00 0.00 82 1001.9
20260507204904 10 237 4.8 9.7 0.00 0.00 0.00 82 1002.1
20260507204825 10 238 4.8 9.7 0.00 0.00 0.00 82 1002.1
20260507204705 10 236 4.8 9.7 0.00 0.00 0.00 82 1002.2
20260507204604 10 235 4.8 9.7 0.00 0.00 0.00 81 1002.1
20260507204505 10 235 6.4 9.7 0.00 0.00 0.00 82 1002.1
20260507204404 10 237 6.4 9.7 0.00 0.00 0.00 81 1002.3
20260507204304 10 239 6.4 9.7 0.00 0.00 0.00 81 1002.0
20260507204205 10 242 4.8 9.7 0.00 0.00 0.00 81 1001.9
20260507204104 10 244 4.8 11.3 0.00 0.00 0.00 81 1001.9
20260507204005 10 244 6.4 11.3 0.00 0.00 0.00 81 1002.1
20260507203904 10 242 6.4 11.3 0.00 0.00 0.00 81 1002.0
20260507203804 10 242 6.4 11.3 0.00 0.00 0.00 81 1001.9
20260507203704 10 245 6.4 11.3 0.00 0.00 0.00 81 1002.0
20260507203605 10 244 6.4 11.3 0.00 0.00 0.00 81 1001.8
20260507203504 10 244 6.4 12.9 0.00 0.00 0.00 81 1002.0
20260507203405 10 245 6.4 12.9 0.00 0.00 0.00 81 1002.2
20260507203304 10 244 6.4 12.9 0.00 0.00 0.00 81 1002.1
20260507203205 10 243 6.4 12.9 0.00 0.00 0.00 80 1002.0
20260507203104 10 246 6.4 12.9 0.00 0.00 0.00 80 1002.0
20260507203004 10 244 8.0 12.9 0.00 0.00 0.00 80 1002.2
20260507202904 10 244 8.0 12.9 0.00 0.00 0.00 80 1002.1
20260507202825 10 242 8.0 12.9 0.00 0.00 0.00 80 1002.0
20260507202704 10 242 6.4 12.9 0.00 0.00 0.00 80 1002.1
20260507202604 10 244 6.4 12.9 0.00 0.00 0.00 80 1002.1
20260507202504 10 243 8.0 12.9 0.00 0.00 0.00 80 1002.1
20260507202425 10 243 6.4 12.9 0.00 0.00 0.00 80 1002.0
20260507202307 10 244 8.0 12.9 0.00 0.00 0.00 80 1001.8
20260507202204 10 242 8.0 12.9 0.00 0.00 0.00 80 1002.2
20260507202104 10 239 6.4 12.9 0.00 0.00 0.00 80 1001.8
20260507202005 10 238 6.4 12.9 0.00 0.00 0.00 80 1001.9
20260507201904 10 239 6.4 11.3 0.00 0.00 0.00 80 1001.8
20260507201805 10 239 6.4 11.3 0.00 0.00 0.00 80 1001.6
20260507201704 10 238 6.4 11.3 0.00 0.00 0.00 80 1002.0
20260507201604 10 239 6.4 11.3 0.00 0.00 0.00 79 1001.8
20260507201504 10 240 6.4 11.3 0.00 0.00 0.00 80 1001.9
20260507201404 10 240 6.4 11.3 0.00 0.00 0.00 80 1001.8
20260507201326 10 238 6.4 11.3 0.00 0.00 0.00 80 1001.8
20260507201225 10 239 6.4 11.3 0.00 0.00 0.00 80 1001.9
20260507201126 10 241 6.4 11.3 0.00 0.00 0.00 80 1001.9
20260507201004 10 244 6.4 11.3 0.00 0.00 0.00 80 1001.8
20260507200904 10 247 6.4 11.3 0.00 0.00 0.00 80 1001.7
20260507200805 10 247 6.4 11.3 0.00 0.00 0.00 80 1001.9
20260507200704 10 247 6.4 11.3 0.00 0.00 0.00 80 1001.8
20260507200604 10 245 6.4 11.3 0.00 0.00 0.00 80 1001.5
20260507200504 10 244 6.4 11.3 0.00 0.00 0.00 80 1001.8
20260507200405 10 245 6.4 11.3 0.00 0.00 0.00 80 1001.7
20260507200304 10 246 6.4 11.3 0.00 0.00 0.00 80 1001.8
20260507200226 10 246 6.4 11.3 0.00 0.00 0.00 80 1001.8
20260507200125 10 246 6.4 11.3 0.00 0.00 0.00 80 1001.7
20260507200004 10 245 6.4 11.3 0.00 0.00 0.00 79 1001.6
20260507195904 10 242 6.4 11.3 0.00 0.00 0.00 79 1001.7
20260507195804 10 241 6.4 11.3 0.00 0.00 0.00 79 1001.7
20260507195704 10 241 6.4 11.3 0.00 0.00 0.00 79 1001.8
20260507195604 10 241 6.4 11.3 0.00 0.00 0.00 79 1001.7
20260507195526 10 240 6.4 11.3 0.00 0.00 0.00 79 1001.7
20260507195404 10 242 6.4 11.3 0.00 0.00 0.00 79 1001.8
20260507195305 10 242 6.4 11.3 0.00 0.00 0.00 78 1001.7
20260507195205 10 240 6.4 11.3 0.00 0.00 0.00 79 1001.6
20260507195104 10 240 6.4 14.5 0.00 0.00 0.00 79 1001.6
20260507195025 10 238 6.4 14.5 0.00 0.00 0.00 78 1001.8
20260507194904 10 238 8.0 14.5 0.00 0.00 0.00 78 1001.6
20260507194825 10 237 6.4 14.5 0.00 0.00 0.00 78 1001.7
20260507194704 10 237 6.4 14.5 0.00 0.00 0.00 78 1001.8
20260507194604 10 238 6.4 14.5 0.00 0.00 0.00 78 1001.4
20260507194504 10 237 6.4 14.5 0.00 0.00 0.00 78 1001.5
20260507194405 10 234 6.4 14.5 0.00 0.00 0.00 78 1001.6
20260507194304 10 233 6.4 14.5 0.00 0.00 0.00 78 1001.5
20260507194204 10 234 6.4 14.5 0.00 0.00 0.00 78 1001.6
20260507194104 10 234 6.4 14.5 0.00 0.00 0.00 78 1001.5
20260507194004 10 235 6.4 14.5 0.00 0.00 0.00 78 1001.7
20260507193904 10 237 6.4 14.5 0.00 0.00 0.00 78 1001.6
20260507193804 10 240 6.4 12.9 0.00 0.00 0.00 78 1001.7
20260507193704 10 240 6.4 14.5 0.00 0.00 0.00 78 1001.6
20260507193604 10 241 6.4 14.5 0.00 0.00 0.00 78 1001.4
20260507193504 10 243 6.4 14.5 0.00 0.00 0.00 78 1001.4
20260507193404 10 244 8.0 14.5 0.00 0.00 0.00 78 1001.4
20260507193325 10 243 8.0 14.5 0.00 0.00 0.00 77 1001.5
20260507193204 10 243 8.0 14.5 0.00 0.00 0.00 78 1001.4
20260507193104 10 243 6.4 14.5 0.00 0.00 0.00 78 1001.6
20260507193004 10 243 6.4 14.5 0.00 0.00 0.00 77 1001.3
20260507192904 10 243 6.4 14.5 0.00 0.00 0.00 78 1001.6
20260507192804 10 243 6.4 14.5 0.00 0.00 0.00 78 1001.5
20260507192704 10 240 6.4 14.5 0.00 0.00 0.00 77 1001.5
20260507192604 10 240 6.4 14.5 0.00 0.00 0.00 77 1001.4
20260507192504 10 236 6.4 11.3 0.00 0.00 0.00 77 1001.5
20260507192404 10 237 6.4 11.3 0.00 0.00 0.00 77 1001.5
20260507192306 10 236 6.4 11.3 0.00 0.00 0.00 77 1001.6
20260507192205 10 237 6.4 11.3 0.00 0.00 0.00 77 1001.6
20260507192104 10 235 6.4 11.3 0.00 0.00 0.00 77 1001.4
20260507192004 10 231 4.8 11.3 0.00 0.00 0.00 77 1001.6
20260507191905 10 227 4.8 11.3 0.00 0.00 0.00 77 1001.5
20260507191804 10 224 4.8 11.3 0.00 0.00 0.00 77 1001.3
20260507191704 10 226 6.4 11.3 0.00 0.00 0.00 77 1001.4
20260507191604 10 226 4.8 11.3 0.00 0.00 0.00 76 1001.5
20260507191504 10 229 4.8 11.3 0.00 0.00 0.00 76 1001.6
20260507191404 10 229 4.8 11.3 0.00 0.00 0.00 76 1001.5
20260507191325 10 230 6.4 11.3 0.00 0.00 0.00 76 1001.4
20260507191204 10 230 6.4 11.3 0.00 0.00 0.00 76 1001.5
20260507191104 10 228 6.4 11.3 0.00 0.00 0.00 76 1001.5
20260507191004 10 230 6.4 11.3 0.00 0.00 0.00 76 1001.4
20260507190904 10 232 6.4 11.3 0.00 0.00 0.00 76 1001.5
20260507190825 10 233 6.4 11.3 0.00 0.00 0.00 76 1001.4
20260507190705 10 229 6.4 11.3 0.00 0.00 0.00 76 1001.2
20260507190604 11 228 6.4 11.3 0.00 0.00 0.00 76 1001.5
20260507190505 11 224 6.4 11.3 0.00 0.00 0.00 76 1001.4
20260507190404 11 221 6.4 11.3 0.00 0.00 0.00 76 1001.5
20260507190305 11 219 6.4 11.3 0.00 0.00 0.00 75 1001.2
20260507190204 11 219 6.4 12.9 0.00 0.00 0.00 75 1001.4
20260507190126 11 220 6.4 12.9 0.00 0.00 0.00 75 1001.6
20260507190005 11 220 6.4 12.9 0.00 0.00 0.00 75 1001.6
20260507185925 11 221 6.4 12.9 0.00 0.00 0.00 75 1001.6
20260507185804 11 223 6.4 12.9 0.00 0.00 0.00 75 1001.5
20260507185704 11 226 6.4 12.9 0.00 0.00 0.00 75 1001.5
20260507185625 11 227 6.4 12.9 0.00 0.00 0.00 75 1001.5
20260507185504 11 228 6.4 14.5 0.00 0.00 0.00 75 1001.3
20260507185404 11 227 8.0 14.5 0.00 0.00 0.00 74 1001.4
20260507185306 11 228 6.4 14.5 0.00 0.00 0.00 75 1001.4
20260507185205 11 230 6.4 16.1 0.00 0.00 0.00 75 1001.3
20260507185104 11 230 8.0 16.1 0.00 0.00 0.00 74 1001.3
20260507185004 11 229 8.0 16.1 0.00 0.00 0.00 75 1001.4
20260507184904 11 227 8.0 16.1 0.00 0.00 0.00 74 1001.2
20260507184804 11 227 8.0 16.1 0.00 0.00 0.00 75 1001.4
20260507184725 11 229 8.0 16.1 0.00 0.00 0.00 74 1001.3
20260507184604 11 226 9.7 16.1 0.00 0.00 0.00 74 1001.4
20260507184505 11 226 9.7 16.1 0.00 0.00 0.00 74 1001.5
20260507184404 11 227 9.7 16.1 0.00 0.00 0.00 74 1001.5
20260507184304 11 228 9.7 16.1 0.00 0.00 0.00 74 1001.6
20260507184204 11 227 9.7 16.1 0.00 0.00 0.00 73 1001.3
20260507184104 11 226 9.7 16.1 0.00 0.00 0.00 73 1001.3
20260507184025 11 228 9.7 16.1 0.00 0.00 0.00 73 1001.3
20260507183904 11 224 9.7 16.1 0.00 0.00 0.00 72 1001.4
20260507183825 11 223 9.7 16.1 0.00 0.00 0.00 73 1001.4
20260507183704 11 220 9.7 16.1 0.00 0.00 0.00 73 1001.4
20260507183604 11 220 9.7 16.1 0.00 0.00 0.00 73 1001.5
20260507183504 11 220 9.7 16.1 0.00 0.00 0.00 73 1001.4
20260507183404 11 223 9.7 17.7 0.00 0.00 0.00 73 1001.3
20260507183304 11 226 9.7 17.7 0.00 0.00 0.00 73 1001.4
20260507183204 11 224 9.7 17.7 0.00 0.00 0.00 73 1001.3
20260507183104 11 224 9.7 17.7 0.00 0.00 0.00 73 1001.4
20260507183005 11 222 9.7 17.7 0.00 0.00 0.00 73 1001.4
20260507182904 11 224 9.7 17.7 0.00 0.00 0.00 73 1001.4
20260507182804 11 227 9.7 17.7 0.00 0.00 0.00 73 1001.4
20260507182704 11 227 11.3 17.7 0.00 0.00 0.00 74 1001.2
20260507182604 11 227 11.3 17.7 0.00 0.00 0.00 73 1001.4
20260507182504 11 226 11.3 17.7 0.00 0.00 0.00 73 1001.4
20260507182404 11 223 11.3 17.7 0.00 0.00 0.00 73 1001.5
20260507182306 11 220 11.3 17.7 0.00 0.00 0.00 73 1001.3
20260507182204 11 218 11.3 20.9 0.00 0.00 0.00 72 1001.4
20260507182104 11 219 11.3 20.9 0.00 0.00 0.00 72 1001.4
20260507182004 11 218 11.3 22.5 0.00 0.00 0.00 72 1001.2
20260507181904 11 220 11.3 22.5 0.00 0.00 0.00 73 1001.2
20260507181825 12 219 11.3 22.5 0.00 0.00 0.00 72 1001.4
20260507181704 12 213 11.3 22.5 0.00 0.00 0.00 72 1001.2
20260507181604 12 218 11.3 22.5 0.00 0.00 0.00 73 1001.2
20260507181504 12 220 11.3 22.5 0.00 0.00 0.00 73 1001.2
20260507181404 12 223 11.3 22.5 0.00 0.00 0.00 72 1001.3
20260507181305 12 224 11.3 22.5 0.00 0.00 0.00 72 1001.3
20260507181204 12 226 11.3 22.5 0.00 0.00 0.00 71 1001.4
20260507181125 12 225 11.3 22.5 0.00 0.00 0.00 71 1001.3
20260507181004 12 226 11.3 22.5 0.00 0.00 0.00 71 1001.4
20260507180904 12 224 11.3 22.5 0.00 0.00 0.00 71 1001.3
20260507180804 12 226 11.3 22.5 0.00 0.00 0.00 72 1001.3
20260507180704 12 226 11.3 22.5 0.00 0.00 0.00 71 1001.1
20260507180604 12 225 11.3 22.5 0.00 0.00 0.00 72 1001.1
20260507180504 12 222 11.3 22.5 0.00 0.00 0.00 73 1001.3
20260507180425 12 221 11.3 22.5 0.00 0.00 0.00 71 1001.3
20260507180304 12 219 11.3 22.5 0.00 0.00 0.00 71 1001.3
20260507180204 12 217 11.3 22.5 0.00 0.00 0.00 71 1001.2
20260507180104 12 219 11.3 22.5 0.00 0.00 0.00 72 1001.4
20260507180004 12 220 11.3 22.5 0.00 0.00 0.00 72 1001.2
20260507175904 12 221 11.3 22.5 0.00 0.00 0.00 72 1001.2
20260507175825 12 224 11.3 22.5 0.00 0.00 0.00 73 1001.2
20260507175704 12 227 11.3 22.5 0.00 0.00 0.00 73 1001.2
20260507175604 12 226 12.9 22.5 0.00 0.00 0.00 73 1001.3
20260507175504 12 227 12.9 22.5 0.00 0.00 0.00 72 1001.4
20260507175404 12 225 12.9 22.5 0.00 0.00 0.00 72 1001.3
20260507175307 12 224 12.9 22.5 0.00 0.00 0.00 72 1001.1
20260507175204 12 225 12.9 22.5 0.00 0.00 0.00 73 1001.4
20260507175125 12 223 12.9 22.5 0.00 0.00 0.00 72 1001.4
20260507175004 12 221 12.9 24.1 0.00 0.00 0.00 73 1001.3
20260507174904 12 219 12.9 24.1 0.00 0.00 0.00 73 1001.2
20260507174804 12 217 12.9 24.1 0.00 0.00 0.00 73 1001.1
20260507174704 12 218 12.9 24.1 0.00 0.00 0.00 73 1001.2
20260507174625 12 221 12.9 24.1 0.00 0.00 0.00 74 1001.2
20260507174504 12 221 12.9 24.1 0.00 0.00 0.00 73 1001.2
20260507174404 12 224 12.9 24.1 0.00 0.00 0.00 73 1001.3
20260507174304 12 227 12.9 24.1 0.00 0.00 0.00 73 1001.3
20260507174204 12 230 12.9 24.1 0.00 0.00 0.00 74 1001.3
20260507174125 12 232 12.9 24.1 0.00 0.00 0.00 74 1001.3
20260507174004 12 231 12.9 24.1 0.00 0.00 0.00 75 1001.5
20260507173904 12 234 11.3 24.1 0.00 0.00 0.00 76 1001.1
20260507173804 12 236 11.3 24.1 0.00 0.00 0.00 74 1001.2
20260507173704 12 233 11.3 24.1 0.00 0.00 0.00 74 1001.4
20260507173604 12 227 11.3 24.1 0.00 0.00 0.00 75 1001.3
20260507173504 12 228 9.7 24.1 0.00 0.00 0.00 75 1001.2
20260507173404 12 226 9.7 24.1 0.00 0.00 0.00 75 1001.4
20260507173325 12 224 9.7 24.1 0.00 0.00 0.00 76 1001.4
20260507173204 12 221 11.3 24.1 0.00 0.00 0.00 76 1001.2
20260507173104 12 218 11.3 24.1 0.00 0.00 0.00 75 1001.4
20260507173005 12 220 11.3 22.5 0.00 0.00 0.00 75 1001.4
20260507172904 12 223 11.3 22.5 0.00 0.00 0.00 76 1001.3
20260507172804 12 220 11.3 22.5 0.00 0.00 0.00 76 1001.6
20260507172704 12 219 11.3 22.5 0.00 0.00 0.00 76 1001.5
20260507172604 12 220 11.3 22.5 0.00 0.00 0.00 76 1001.2
20260507172504 12 219 11.3 22.5 0.00 0.00 0.00 75 1001.4
20260507172404 12 219 11.3 22.5 0.00 0.00 0.00 75 1001.4
20260507172307 12 222 11.3 22.5 0.00 0.00 0.00 76 1001.4
20260507172225 12 224 11.3 22.5 0.00 0.00 0.00 75 1001.4
20260507172104 12 225 11.3 24.1 0.00 0.00 0.00 75 1001.5
20260507172004 12 226 11.3 24.1 0.00 0.00 0.00 74 1001.5
20260507171905 12 225 11.3 24.1 0.00 0.00 0.00 75 1001.3
20260507171804 12 226 11.3 24.1 0.00 0.00 0.00 75 1001.2
20260507171704 12 232 12.9 24.1 0.00 0.00 0.00 76 1001.3
20260507171604 12 235 12.9 24.1 0.00 0.00 0.00 75 1001.6
20260507171504 12 238 12.9 24.1 0.00 0.00 0.00 74 1001.3
20260507171404 12 238 12.9 24.1 0.00 0.00 0.00 75 1001.6
20260507171304 12 238 12.9 24.1 0.00 0.00 0.00 75 1001.4
20260507171225 12 235 12.9 24.1 0.00 0.00 0.00 75 1001.4
20260507171104 12 238 12.9 24.1 0.00 0.00 0.00 74 1001.5
20260507171004 12 237 12.9 20.9 0.00 0.00 0.00 76 1001.3
20260507170904 12 237 12.9 25.7 0.00 0.00 0.00 74 1001.5
20260507170804 12 239 12.9 25.7 0.00 0.00 0.00 75 1001.6
20260507170704 12 236 12.9 25.7 0.00 0.00 0.00 76 1001.5
20260507170604 12 235 12.9 25.7 0.00 0.00 0.00 76 1001.5
20260507170504 12 234 12.9 25.7 0.00 0.00 0.00 76 1001.5
20260507170425 12 234 12.9 25.7 0.00 0.00 0.00 75 1001.5
20260507170304 12 233 12.9 25.7 0.00 0.00 0.00 77 1001.5
20260507170225 12 235 14.5 25.7 0.00 0.00 0.00 76 1001.5
20260507170104 12 236 14.5 25.7 0.00 0.00 0.00 76 1001.5
20260507170005 12 237 14.5 25.7 0.00 0.00 0.00 76 1001.6
20260507165904 12 239 14.5 25.7 0.00 0.00 0.00 76 1001.6
20260507165804 12 241 14.5 24.1 0.00 0.00 0.00 75 1001.4
20260507165704 12 242 12.9 24.1 0.00 0.00 0.00 75 1001.5
20260507165604 12 243 12.9 24.1 0.00 0.00 0.00 76 1001.8
20260507165504 12 244 12.9 24.1 0.00 0.00 0.00 75 1001.6
20260507165404 12 242 12.9 24.1 0.00 0.00 0.00 75 1001.7
20260507165306 12 242 12.9 24.1 0.00 0.00 0.00 76 1001.4
20260507165225 12 242 12.9 24.1 0.00 0.00 0.00 76 1001.4
20260507165104 12 238 12.9 29.0 0.00 0.00 0.00 76 1001.6
20260507165004 12 240 12.9 29.0 0.00 0.00 0.00 76 1001.6
20260507164904 12 240 12.9 29.0 0.00 0.00 0.00 76 1001.5
20260507164825 12 240 12.9 29.0 0.00 0.00 0.00 78 1001.5
20260507164704 12 243 12.9 29.0 0.00 0.00 0.00 77 1001.6
20260507164604 12 243 12.9 29.0 0.00 0.00 0.00 76 1001.6
20260507164504 12 246 12.9 29.0 0.00 0.00 0.00 75 1001.6
20260507164404 12 247 12.9 29.0 0.00 0.00 0.00 76 1001.6
20260507164325 12 250 12.9 29.0 0.00 0.00 0.00 76 1001.6
20260507164204 12 251 12.9 29.0 0.00 0.00 0.00 76 1001.8
20260507164104 12 255 14.5 29.0 0.00 0.00 0.00 75 1001.5
20260507164025 12 257 12.9 24.1 0.00 0.00 0.00 76 1001.5
20260507163904 12 254 12.9 24.1 0.00 0.00 0.00 78 1001.5
20260507163804 12 251 14.5 24.1 0.00 0.00 0.00 76 1001.6
20260507163704 12 252 14.5 24.1 0.00 0.00 0.00 77 1001.7
20260507163604 12 250 14.5 24.1 0.00 0.00 0.00 77 1001.6
20260507163504 12 248 14.5 24.1 0.00 0.00 0.00 76 1001.6
20260507163404 12 247 14.5 24.1 0.00 0.00 0.00 77 1001.6
20260507163325 12 246 12.9 24.1 0.00 0.00 0.00 77 1001.6
20260507163204 12 244 12.9 25.7 0.00 0.00 0.00 75 1001.5
20260507163104 12 242 12.9 25.7 0.00 0.00 0.00 76 1001.5
20260507163004 12 242 12.9 25.7 0.00 0.00 0.00 75 1001.6
20260507162925 12 242 12.9 25.7 0.00 0.00 0.00 76 1001.6
20260507162804 12 243 12.9 25.7 0.00 0.00 0.00 77 1001.7
20260507162704 12 240 12.9 25.7 0.00 0.00 0.00 76 1001.5
20260507162604 12 241 12.9 25.7 0.00 0.00 0.00 75 1001.7
20260507162504 12 242 12.9 25.7 0.00 0.00 0.00 76 1001.6
20260507162404 12 244 12.9 25.7 0.00 0.00 0.00 77 1001.4
20260507162307 12 243 12.9 25.7 0.00 0.00 0.00 76 1001.7
20260507162204 12 244 12.9 25.7 0.00 0.00 0.00 76 1001.7
20260507162125 12 244 12.9 25.7 0.00 0.00 0.00 76 1001.7
20260507162025 12 245 12.9 22.5 0.00 0.00 0.00 77 1001.6
20260507161904 12 247 12.9 22.5 0.00 0.00 0.00 76 1001.7
20260507161804 12 249 12.9 22.5 0.00 0.00 0.00 78 1001.6
20260507161704 12 250 12.9 22.5 0.00 0.00 0.00 77 1001.5
20260507161625 12 250 12.9 22.5 0.00 0.00 0.00 77 1001.5
20260507161504 12 251 12.9 22.5 0.00 0.00 0.00 77 1001.6
20260507161425 12 250 12.9 22.5 0.00 0.00 0.00 77 1001.6
20260507161304 12 252 11.3 22.5 0.00 0.00 0.00 77 1001.5
20260507161225 12 253 11.3 22.5 0.00 0.00 0.00 77 1001.5
20260507161104 12 253 11.3 22.5 0.00 0.00 0.00 77 1001.7
20260507161004 12 252 11.3 22.5 0.00 0.00 0.00 77 1001.7
20260507160925 12 251 11.3 22.5 0.00 0.00 0.00 78 1001.7
20260507160804 12 250 11.3 22.5 0.00 0.00 0.00 76 1001.6
20260507160704 12 249 11.3 22.5 0.00 0.00 0.00 77 1001.7
20260507160604 12 247 11.3 22.5 0.00 0.00 0.00 77 1001.7
20260507160504 12 245 11.3 22.5 0.00 0.00 0.00 77 1001.7
20260507160404 12 244 11.3 22.5 0.00 0.00 0.00 77 1001.7
20260507160304 12 244 11.3 22.5 0.00 0.00 0.00 77 1001.6
20260507160204 12 244 11.3 22.5 0.00 0.00 0.00 77 1001.8
20260507160104 12 244 12.9 22.5 0.00 0.00 0.00 76 1001.7
20260507160004 12 247 12.9 20.9 0.00 0.00 0.00 77 1002.0
20260507155925 12 247 12.9 20.9 0.00 0.00 0.00 77 1002.0
20260507155804 12 246 12.9 24.1 0.00 0.00 0.00 76 1001.6
20260507155725 12 247 12.9 24.1 0.00 0.00 0.00 76 1001.6
20260507155604 12 246 12.9 24.1 0.00 0.00 0.00 76 1001.6
20260507155525 12 250 12.9 24.1 0.00 0.00 0.00 77 1001.6
20260507155425 12 250 12.9 24.1 0.00 0.00 0.00 76 1001.8
20260507155325 12 249 12.9 24.1 0.00 0.00 0.00 77 1001.7
20260507155204 12 246 12.9 24.1 0.00 0.00 0.00 76 1001.7
20260507155104 12 245 12.9 24.1 0.00 0.00 0.00 77 1001.6
20260507155004 12 243 12.9 24.1 0.00 0.00 0.00 77 1001.7
20260507154904 12 242 12.9 24.1 0.00 0.00 0.00 76 1001.6
20260507154804 12 241 12.9 24.1 0.00 0.00 0.00 76 1001.6
20260507154704 12 240 11.3 22.5 0.00 0.00 0.00 77 1001.6
20260507154604 12 242 11.3 22.5 0.00 0.00 0.00 77 1001.5
20260507154504 12 241 11.3 22.5 0.00 0.00 0.00 77 1001.6
20260507154404 12 242 11.3 22.5 0.00 0.00 0.00 76 1001.9
20260507154304 12 244 11.3 22.5 0.00 0.00 0.00 77 1001.6
20260507154204 12 243 12.9 22.5 0.00 0.00 0.00 76 1001.9
20260507154104 12 241 12.9 22.5 0.00 0.00 0.00 76 1001.6
20260507154005 12 237 12.9 22.5 0.00 0.00 0.00 76 1001.7
20260507153904 12 233 12.9 22.5 0.00 0.00 0.00 76 1001.8
20260507153804 12 233 12.9 22.5 0.00 0.00 0.00 76 1001.6
20260507153705 12 231 12.9 24.1 0.00 0.00 0.00 76 1001.7
20260507153625 12 230 12.9 24.1 0.00 0.00 0.00 76 1001.7
20260507153504 12 232 12.9 24.1 0.00 0.00 0.00 76 1001.8
20260507153404 12 230 12.9 24.1 0.00 0.00 0.00 76 1001.8
20260507153304 12 229 12.9 24.1 0.00 0.00 0.00 76 1001.7
20260507153204 12 224 12.9 24.1 0.00 0.00 0.00 76 1001.7
20260507153104 12 226 12.9 24.1 0.00 0.00 0.00 77 1001.9
20260507153004 12 228 12.9 24.1 0.00 0.00 0.00 77 1001.8
20260507152904 12 235 11.3 24.1 0.00 0.00 0.00 77 1001.7
20260507152804 12 231 11.3 24.1 0.00 0.00 0.00 77 1002.0
20260507152725 12 231 11.3 24.1 0.00 0.00 0.00 76 1002.0
20260507152604 12 236 11.3 24.1 0.00 0.00 0.00 76 1001.8
20260507152504 12 238 12.9 25.7 0.00 0.00 0.00 76 1001.9
20260507152404 12 236 12.9 25.7 0.00 0.00 0.00 77 1001.8
20260507152306 12 238 12.9 25.7 0.00 0.00 0.00 76 1001.9
20260507152204 12 244 12.9 25.7 0.00 0.00 0.00 77 1001.8
20260507152106 12 243 14.5 25.7 0.00 0.00 0.00 77 1001.7
20260507152004 12 244 14.5 27.4 0.00 0.00 0.00 76 1002.0
20260507151904 12 241 14.5 27.4 0.00 0.00 0.00 75 1001.9
20260507151804 12 243 16.1 27.4 0.00 0.00 0.00 78 1001.6
20260507151704 12 244 14.5 27.4 0.00 0.00 0.00 76 1001.7
20260507151604 12 241 14.5 27.4 0.00 0.00 0.00 76 1001.7
20260507151504 12 236 14.5 27.4 0.00 0.00 0.00 75 1001.7
20260507151404 12 234 14.5 27.4 0.00 0.00 0.00 75 1001.7
20260507151304 12 232 14.5 27.4 0.00 0.00 0.00 77 1001.9
20260507151204 12 229 12.9 27.4 0.00 0.00 0.00 76 1001.7
20260507151104 12 227 12.9 27.4 0.00 0.00 0.00 76 1001.9
20260507151004 12 226 12.9 27.4 0.00 0.00 0.00 75 1001.9
20260507150904 12 227 12.9 25.7 0.00 0.00 0.00 76 1001.9
20260507150804 12 227 12.9 25.7 0.00 0.00 0.00 78 1001.6
20260507150704 12 227 12.9 25.7 0.00 0.00 0.00 77 1001.8
20260507150604 12 225 12.9 25.7 0.00 0.00 0.00 76 1001.6
20260507150504 12 223 12.9 25.7 0.00 0.00 0.00 76 1001.9
20260507150404 12 225 11.3 22.5 0.00 0.00 0.00 76 1002.0
20260507150325 12 226 11.3 22.5 0.00 0.00 0.00 78 1002.0
20260507150204 12 226 11.3 25.7 0.00 0.00 0.00 79 1001.9
20260507150104 12 223 11.3 25.7 0.00 0.00 0.00 78 1002.1
20260507150005 12 226 12.9 25.7 0.00 0.00 0.00 77 1001.8
20260507145904 12 226 11.3 25.7 0.00 0.00 0.00 78 1001.6
20260507145804 12 226 11.3 25.7 0.00 0.00 0.00 78 1001.8
20260507145725 12 225 11.3 25.7 0.00 0.00 0.00 77 1001.8
20260507145604 12 228 11.3 25.7 0.00 0.00 0.00 77 1001.9
20260507145504 12 232 11.3 25.7 0.00 0.00 0.00 78 1001.8
20260507145404 11 232 11.3 25.7 0.00 0.00 0.00 79 1001.9
20260507145306 11 233 11.3 25.7 0.00 0.00 0.00 79 1001.9
20260507145204 11 232 12.9 25.7 0.00 0.00 0.00 77 1001.8
20260507145125 11 234 11.3 25.7 0.00 0.00 0.00 77 1001.8
20260507145004 11 235 11.3 22.5 0.00 0.00 0.00 77 1002.0
20260507144904 11 234 11.3 22.5 0.00 0.00 0.00 79 1001.9
20260507144825 11 233 11.3 22.5 0.00 0.00 0.00 80 1001.9
20260507144704 11 234 11.3 22.5 0.00 0.00 0.00 79 1001.9
20260507144604 11 233 11.3 22.5 0.00 0.00 0.00 79 1001.9
20260507144504 11 235 11.3 22.5 0.00 0.00 0.00 78 1001.9
20260507144404 11 233 11.3 20.9 0.00 0.00 0.00 80 1002.0
20260507144304 11 230 11.3 17.7 0.00 0.00 0.00 79 1002.0
20260507144225 11 230 9.7 17.7 0.00 0.00 0.00 81 1002.0
20260507144104 11 232 9.7 17.7 0.00 0.00 0.00 80 1001.8
20260507144004 11 231 9.7 17.7 0.00 0.00 0.00 81 1002.2
20260507143904 11 233 9.7 17.7 0.00 0.00 0.00 81 1001.8
20260507143804 11 235 9.7 17.7 0.00 0.00 0.00 81 1001.9
20260507143725 11 234 9.7 17.7 0.00 0.00 0.00 82 1001.9
20260507143604 11 233 9.7 17.7 0.00 0.00 0.00 82 1001.9
20260507143525 11 230 9.7 17.7 0.00 0.00 0.00 82 1001.9
20260507143404 11 233 9.7 17.7 0.00 0.00 0.00 82 1002.0
20260507143304 11 236 9.7 17.7 0.00 0.00 0.00 82 1002.1
20260507143204 11 236 9.7 17.7 0.00 0.00 0.00 82 1002.1
20260507143104 10 238 9.7 17.7 0.00 0.00 0.00 82 1002.1
20260507143004 10 236 9.7 17.7 0.00 0.00 0.00 82 1001.9
20260507142904 10 235 9.7 17.7 0.00 0.00 0.00 82 1001.9
20260507142804 10 236 9.7 20.9 0.00 0.00 0.00 82 1002.0
20260507142704 10 238 9.7 20.9 0.00 0.00 0.00 83 1001.9
20260507142604 10 241 9.7 20.9 0.00 0.00 0.00 83 1002.1
20260507142504 10 241 9.7 20.9 0.00 0.00 0.00 83 1002.1
20260507142404 10 241 9.7 20.9 0.00 0.00 0.00 83 1002.1
20260507142325 10 240 9.7 20.9 0.00 0.00 0.00 83 1002.1
20260507142204 10 242 9.7 20.9 0.00 0.00 0.00 83 1001.9
20260507142125 10 239 9.7 20.9 0.00 0.00 0.00 82 1001.9
20260507142004 10 233 9.7 22.5 0.00 0.00 0.00 82 1002.1
20260507141925 10 234 9.7 22.5 0.00 0.00 0.00 82 1002.1
20260507141804 10 229 9.7 22.5 0.00 0.00 0.00 81 1002.2
20260507141725 11 229 9.7 22.5 0.00 0.00 0.00 79 1002.2
20260507141625 11 230 9.7 22.5 0.00 0.00 0.00 79 1002.3
20260507141504 11 229 9.7 22.5 0.00 0.00 0.00 80 1002.4
20260507141425 11 229 11.3 22.5 0.00 0.00 0.00 79 1002.4
20260507141325 10 231 11.3 22.5 0.00 0.00 0.00 78 1002.2
20260507141204 10 231 11.3 22.5 0.00 0.00 0.00 77 1002.4
20260507141104 10 232 11.3 22.5 0.00 0.00 0.00 77 1002.4
20260507141004 10 236 11.3 22.5 0.00 0.00 0.00 78 1002.2
20260507140904 10 236 11.3 20.9 0.00 0.00 0.00 79 1002.2
20260507140804 10 238 11.3 20.9 0.00 0.00 0.00 78 1002.3
20260507140725 10 238 11.3 20.9 0.00 0.00 0.00 78 1002.3
20260507140604 11 235 11.3 20.9 0.00 0.00 0.00 79 1002.4
20260507140504 11 233 11.3 20.9 0.00 0.00 0.00 78 1002.5
20260507140404 11 234 11.3 20.9 0.00 0.00 0.00 79 1002.4
20260507140304 11 231 11.3 20.9 0.00 0.00 0.00 79 1002.4
20260507140204 11 229 11.3 20.9 0.00 0.00 0.00 79 1002.3
20260507140125 11 230 11.3 20.9 0.00 0.00 0.00 80 1002.3
20260507140005 11 228 9.7 17.7 0.00 0.00 0.00 80 1002.3
20260507135904 11 229 11.3 17.7 0.00 0.00 0.00 80 1002.3
20260507135804 10 230 11.3 17.7 0.00 0.00 0.00 80 1002.4
20260507135704 10 233 11.3 17.7 0.00 0.00 0.00 80 1002.4
20260507135625 10 232 11.3 17.7 0.00 0.00 0.00 80 1002.4
20260507135504 10 233 11.3 17.7 0.00 0.00 0.00 79 1002.3
20260507135404 10 231 11.3 17.7 0.00 0.00 0.00 79 1002.1
20260507135306 10 234 11.3 17.7 0.00 0.00 0.00 79 1002.5
20260507135204 10 235 9.7 17.7 0.00 0.00 0.00 79 1002.3
20260507135104 10 233 9.7 17.7 0.00 0.00 0.00 80 1002.3
20260507135004 10 232 9.7 17.7 0.00 0.00 0.00 80 1002.4
20260507134904 10 234 9.7 17.7 0.00 0.00 0.00 80 1002.6
20260507134804 10 236 9.7 17.7 0.00 0.00 0.00 81 1002.3
20260507134704 10 237 9.7 17.7 0.00 0.00 0.00 81 1002.6
20260507134604 10 243 9.7 24.1 0.00 0.00 0.00 81 1002.3
20260507134504 10 245 11.3 24.1 0.00 0.00 0.00 81 1002.5
20260507134404 10 249 11.3 24.1 0.00 0.00 0.00 81 1002.4
20260507134304 10 247 11.3 24.1 0.00 0.00 0.00 80 1002.5
20260507134204 10 248 11.3 24.1 0.00 0.00 0.00 81 1002.3
20260507134104 10 248 11.3 24.1 0.00 0.00 0.00 80 1002.4
20260507134004 10 253 11.3 24.1 0.00 0.00 0.00 80 1002.5
20260507133904 10 254 11.3 24.1 0.00 0.00 0.00 79 1002.6
20260507133804 10 253 11.3 24.1 0.00 0.00 0.00 80 1002.5
20260507133704 10 250 11.3 24.1 0.00 0.00 0.00 80 1002.3
20260507133604 10 248 11.3 24.1 0.00 0.00 0.00 80 1002.5
20260507133504 11 246 11.3 24.1 0.00 0.00 0.00 79 1002.6
20260507133404 11 246 11.3 20.9 0.00 0.00 0.00 80 1002.6
20260507133304 11 246 11.3 20.9 0.00 0.00 0.00 79 1002.4
20260507133204 11 243 11.3 20.9 0.00 0.00 0.00 79 1002.7
20260507133104 11 243 11.3 20.9 0.00 0.00 0.00 78 1002.6
20260507133004 11 236 11.3 20.9 0.00 0.00 0.00 78 1002.4
20260507132904 11 235 11.3 20.9 0.00 0.00 0.00 77 1002.4
20260507132804 11 233 11.3 20.9 0.00 0.00 0.00 78 1002.6
20260507132704 11 233 11.3 20.9 0.00 0.00 0.00 78 1002.6
20260507132604 11 236 11.3 20.9 0.00 0.00 0.00 78 1002.6
20260507132504 11 236 11.3 20.9 0.00 0.00 0.00 79 1002.6
20260507132404 11 231 11.3 20.9 0.00 0.00 0.00 79 1002.6
20260507132307 11 227 11.3 20.9 0.00 0.00 0.00 78 1002.4
20260507132204 11 230 11.3 20.9 0.00 0.00 0.00 79 1002.4
20260507132104 11 228 11.3 20.9 0.00 0.00 0.00 79 1002.7
20260507132004 11 231 11.3 20.9 0.00 0.00 0.00 78 1002.6
20260507131906 11 232 11.3 20.9 0.00 0.00 0.00 78 1002.3
20260507131804 11 234 11.3 20.9 0.00 0.00 0.00 79 1002.3
20260507131725 11 233 11.3 20.9 0.00 0.00 0.00 78 1002.3
20260507131604 10 226 11.3 20.9 0.00 0.00 0.00 79 1002.6
20260507131504 10 224 11.3 20.9 0.00 0.00 0.00 78 1002.4
20260507131404 10 224 11.3 20.9 0.00 0.00 0.00 78 1002.6
20260507131304 11 224 11.3 22.5 0.00 0.00 0.00 77 1002.5
20260507131204 11 225 11.3 22.5 0.00 0.00 0.00 78 1002.5
20260507131104 11 228 11.3 22.5 0.00 0.00 0.00 78 1002.6
20260507131004 10 228 11.3 22.5 0.00 0.00 0.00 79 1002.3
20260507130904 10 227 11.3 22.5 0.00 0.00 0.00 78 1002.5
20260507130804 10 227 11.3 22.5 0.00 0.00 0.00 77 1002.6
20260507130704 10 228 11.3 22.5 0.00 0.00 0.00 78 1002.6
20260507130604 10 233 11.3 22.5 0.00 0.00 0.00 78 1002.7
20260507130504 11 237 11.3 22.5 0.00 0.00 0.00 78 1002.4
20260507130446 11 236 11.3 22.5 0.00 0.00 0.00 77 1002.4
20260507130304 11 242 11.3 22.5 0.00 0.00 0.00 78 1002.6
20260507130204 11 244 11.3 22.5 0.00 0.00 0.00 77 1002.4
20260507130104 11 246 11.3 20.9 0.00 0.00 0.00 77 1002.7
20260507130004 11 244 11.3 17.7 0.00 0.00 0.00 77 1002.5
20260507125904 11 243 11.3 17.7 0.00 0.00 0.00 77 1002.6
20260507125804 11 243 11.3 22.5 0.00 0.00 0.00 78 1002.6
20260507125725 11 242 12.9 22.5 0.00 0.00 0.00 77 1002.6
20260507125604 11 238 12.9 25.7 0.00 0.00 0.00 75 1002.6
20260507125504 11 234 12.9 25.7 0.00 0.00 0.00 76 1002.4
20260507125404 11 232 12.9 25.7 0.00 0.00 0.00 76 1002.6
20260507125325 11 229 12.9 25.7 0.00 0.00 0.00 75 1002.6
20260507125204 11 229 14.5 25.7 0.00 0.00 0.00 75 1002.7
20260507125125 11 229 12.9 25.7 0.00 0.00 0.00 75 1002.7
20260507125004 11 226 12.9 25.7 0.00 0.00 0.00 75 1002.8
20260507124904 11 227 14.5 25.7 0.00 0.00 0.00 74 1002.6
20260507124825 11 227 14.5 25.7 0.00 0.00 0.00 75 1002.6
20260507124725 11 226 12.9 25.7 0.00 0.00 0.00 74 1002.7
20260507124604 11 228 12.9 25.7 0.00 0.00 0.00 74 1002.6
20260507124504 11 234 11.3 20.9 0.00 0.00 0.00 74 1002.4
20260507124404 11 240 11.3 20.9 0.00 0.00 0.00 74 1002.6
20260507124304 11 245 11.3 22.5 0.00 0.00 0.00 73 1002.5
20260507124204 11 244 11.3 24.1 0.00 0.00 0.00 74 1002.8
20260507124104 11 244 12.9 24.1 0.00 0.00 0.00 74 1002.5
20260507124004 11 245 12.9 24.1 0.00 0.00 0.00 73 1002.5
20260507123904 11 244 12.9 24.1 0.00 0.00 0.00 72 1002.6
20260507123804 11 245 12.9 24.1 0.00 0.00 0.00 73 1002.6
20260507123725 11 247 12.9 24.1 0.00 0.00 0.00 73 1002.6
20260507123604 11 248 14.5 24.1 0.00 0.00 0.00 74 1002.5
20260507123504 11 246 14.5 24.1 0.00 0.00 0.00 73 1002.4
20260507123404 11 242 14.5 24.1 0.00 0.00 0.00 72 1002.5
20260507123304 11 241 14.5 24.1 0.00 0.00 0.00 70 1002.5
20260507123204 11 241 14.5 24.1 0.00 0.00 0.00 71 1002.6
20260507123104 11 241 14.5 24.1 0.00 0.00 0.00 72 1002.5
20260507123025 11 240 14.5 24.1 0.00 0.00 0.00 71 1002.5
20260507122904 11 243 14.5 24.1 0.00 0.00 0.00 70 1002.4
20260507122804 11 241 14.5 24.1 0.00 0.00 0.00 71 1002.6
20260507122705 11 239 14.5 24.1 0.00 0.00 0.00 70 1002.5
20260507122604 11 236 14.5 24.1 0.00 0.00 0.00 71 1002.6
20260507122525 11 236 14.5 24.1 0.00 0.00 0.00 71 1002.6